Wetterdaten: Donnerstag, 11.07.2013
Datum Zeit Temp. Aussen +5cm Feuchte Auss Luftdruck Regen Sonnenschein Regendauer UV Solar Windben
11.07.2013 00:00 15,2 C 14,6 C 73 % 1021,7 hPa 0,0 l/m 0 min 0 min 0,0 UV-I 0 W/m 15,4 km/h (3 Bft)
11.07.2013 00:02 15,2 C 14,6 C 73 % 1021,6 hPa 0,0 l/m 0 min 0 min 0,0 UV-I 0 W/m 18,0 km/h (3 Bft)
11.07.2013 00:06 15,2 C 14,6 C 73 % 1021,6 hPa 0,0 l/m 0 min 0 min 0,0 UV-I 0 W/m 10,3 km/h (2 Bft)
11.07.2013 00:08 15,2 C 14,6 C 73 % 1021,7 hPa 0,0 l/m 0 min 0 min 0,0 UV-I 0 W/m 10,3 km/h (2 Bft)
11.07.2013 00:10 15,2 C 14,6 C 74 % 1021,6 hPa 0,0 l/m 0 min 0 min 0,0 UV-I 0 W/m 12,9 km/h (3 Bft)
11.07.2013 00:12 15,1 C 14,6 C 74 % 1021,7 hPa 0,0 l/m 0 min 0 min 0,0 UV-I 0 W/m 5,1 km/h (1 Bft)
11.07.2013 00:14 15,1 C 14,6 C 74 % 1021,7 hPa 0,0 l/m 0 min 0 min 0,0 UV-I 0 W/m 18,0 km/h (3 Bft)
11.07.2013 00:16 15,1 C 14,0 C 74 % 1021,6 hPa 0,0 l/m 0 min 0 min 0,0 UV-I 0 W/m 15,4 km/h (3 Bft)
11.07.2013 00:18 15,1 C 14,0 C 73 % 1021,7 hPa 0,0 l/m 0 min 0 min 0,0 UV-I 0 W/m 20,6 km/h (4 Bft)
11.07.2013 00:20 15,1 C 14,0 C 73 % 1021,7 hPa 0,0 l/m 0 min 0 min 0,0 UV-I 0 W/m 20,6 km/h (4 Bft)
11.07.2013 00:22 15,1 C 14,0 C 73 % 1021,7 hPa 0,0 l/m 0 min 0 min 0,0 UV-I 0 W/m 15,4 km/h (3 Bft)
11.07.2013 00:24 15,1 C 14,0 C 73 % 1021,7 hPa 0,0 l/m 0 min 0 min 0,0 UV-I 0 W/m 15,4 km/h (3 Bft)
11.07.2013 00:26 15,1 C 14,0 C 73 % 1021,7 hPa 0,0 l/m 0 min 0 min 0,0 UV-I 0 W/m 10,3 km/h (2 Bft)
11.07.2013 00:28 15,1 C 14,0 C 73 % 1021,7 hPa 0,0 l/m 0 min 0 min 0,0 UV-I 0 W/m 20,6 km/h (4 Bft)
11.07.2013 00:30 15,0 C 14,0 C 72 % 1021,7 hPa 0,0 l/m 0 min 0 min 0,0 UV-I 0 W/m 12,9 km/h (3 Bft)
11.07.2013 00:32 15,0 C 14,0 C 73 % 1021,7 hPa 0,0 l/m 0 min 0 min 0,0 UV-I 0 W/m 5,1 km/h (1 Bft)
11.07.2013 00:34 15,0 C 14,0 C 73 % 1021,7 hPa 0,0 l/m 0 min 0 min 0,0 UV-I 0 W/m 10,3 km/h (2 Bft)
11.07.2013 00:36 15,0 C 14,0 C 73 % 1021,7 hPa 0,0 l/m 0 min 0 min 0,0 UV-I 0 W/m 10,3 km/h (2 Bft)
11.07.2013 00:38 15,0 C 14,0 C 73 % 1021,7 hPa 0,0 l/m 0 min 0 min 0,0 UV-I 0 W/m 12,9 km/h (3 Bft)
11.07.2013 00:40 14,9 C 14,0 C 73 % 1021,7 hPa 0,0 l/m 0 min 0 min 0,0 UV-I 0 W/m 15,4 km/h (3 Bft)
11.07.2013 00:42 14,9 C 14,0 C 73 % 1021,7 hPa 0,0 l/m 0 min 0 min 0,0 UV-I 0 W/m 20,6 km/h (4 Bft)
11.07.2013 00:44 14,9 C 14,0 C 73 % 1021,7 hPa 0,0 l/m 0 min 0 min 0,0 UV-I 0 W/m 15,4 km/h (3 Bft)
11.07.2013 00:46 14,9 C 14,0 C 73 % 1021,7 hPa 0,0 l/m 0 min 0 min 0,0 UV-I 0 W/m 18,0 km/h (3 Bft)
11.07.2013 00:48 14,9 C 14,0 C 73 % 1021,7 hPa 0,0 l/m 0 min 0 min 0,0 UV-I 0 W/m 15,4 km/h (3 Bft)
11.07.2013 00:50 14,9 C 14,0 C 73 % 1021,7 hPa 0,0 l/m 0 min 0 min 0,0 UV-I 0 W/m 20,6 km/h (4 Bft)
11.07.2013 00:52 14,8 C 14,0 C 73 % 1021,7 hPa 0,0 l/m 0 min 0 min 0,0 UV-I 0 W/m 15,4 km/h (3 Bft)
11.07.2013 00:54 14,8 C 14,0 C 73 % 1021,7 hPa 0,0 l/m 0 min 0 min 0,0 UV-I 0 W/m 15,4 km/h (3 Bft)
11.07.2013 00:56 14,8 C 14,0 C 73 % 1021,7 hPa 0,0 l/m 0 min 0 min 0,0 UV-I 0 W/m 15,4 km/h (3 Bft)
11.07.2013 00:58 14,8 C 14,0 C 73 % 1021,7 hPa 0,0 l/m 0 min 0 min 0,0 UV-I 0 W/m 12,9 km/h (3 Bft)
11.07.2013 01:00 14,8 C 14,0 C 73 % 1021,7 hPa 0,0 l/m 0 min 0 min 0,0 UV-I 0 W/m 12,9 km/h (3 Bft)
11.07.2013 01:02 14,8 C 14,0 C 73 % 1021,8 hPa 0,0 l/m 0 min 0 min 0,0 UV-I 0 W/m 12,9 km/h (3 Bft)
11.07.2013 01:06 14,7 C 13,4 C 73 % 1021,8 hPa 0,0 l/m 0 min 0 min 0,0 UV-I 0 W/m 20,6 km/h (4 Bft)
11.07.2013 01:08 14,7 C 13,4 C 73 % 1021,8 hPa 0,0 l/m 0 min 0 min 0,0 UV-I 0 W/m 0,0 km/h (0 Bft)
11.07.2013 01:10 14,7 C 13,4 C 73 % 1021,9 hPa 0,0 l/m 0 min 0 min 0,0 UV-I 0 W/m 12,9 km/h (3 Bft)
11.07.2013 01:12 14,7 C 13,4 C 73 % 1021,8 hPa 0,0 l/m 0 min 0 min 0,0 UV-I 0 W/m 7,7 km/h (2 Bft)
11.07.2013 01:14 14,7 C 13,4 C 73 % 1021,8 hPa 0,0 l/m 0 min 0 min 0,0 UV-I 0 W/m 10,3 km/h (2 Bft)
11.07.2013 01:16 14,7 C 13,4 C 73 % 1021,8 hPa 0,0 l/m 0 min 0 min 0,0 UV-I 0 W/m 10,3 km/h (2 Bft)
11.07.2013 01:18 14,6 C 13,4 C 73 % 1021,8 hPa 0,0 l/m 0 min 0 min 0,0 UV-I 0 W/m 7,7 km/h (2 Bft)
11.07.2013 01:20 14,6 C 13,4 C 74 % 1021,8 hPa 0,0 l/m 0 min 0 min 0,0 UV-I 0 W/m 5,1 km/h (1 Bft)
11.07.2013 01:22 14,6 C 13,4 C 74 % 1021,9 hPa 0,0 l/m 0 min 0 min 0,0 UV-I 0 W/m 0,0 km/h (0 Bft)
11.07.2013 01:24 14,6 C 13,4 C 74 % 1021,8 hPa 0,0 l/m 0 min 0 min 0,0 UV-I 0 W/m 0,0 km/h (0 Bft)
11.07.2013 01:26 14,6 C 13,4 C 74 % 1021,9 hPa 0,0 l/m 0 min 0 min 0,0 UV-I 0 W/m 0,0 km/h (0 Bft)
11.07.2013 01:28 14,6 C 13,4 C 74 % 1021,9 hPa 0,0 l/m 0 min 0 min 0,0 UV-I 0 W/m 2,6 km/h (1 Bft)
11.07.2013 01:30 14,5 C 13,4 C 74 % 1021,8 hPa 0,0 l/m 0 min 0 min 0,0 UV-I 0 W/m 0,0 km/h (0 Bft)
11.07.2013 01:32 14,5 C 13,4 C 74 % 1021,8 hPa 0,0 l/m 0 min 0 min 0,0 UV-I 0 W/m 0,0 km/h (0 Bft)
11.07.2013 01:34 14,5 C 13,4 C 74 % 1021,8 hPa 0,0 l/m 0 min 0 min 0,0 UV-I 0 W/m 12,9 km/h (3 Bft)
11.07.2013 01:36 14,5 C 13,4 C 74 % 1021,8 hPa 0,0 l/m 0 min 0 min 0,0 UV-I 0 W/m 7,7 km/h (2 Bft)
11.07.2013 01:38 14,4 C 13,4 C 74 % 1021,8 hPa 0,0 l/m 0 min 0 min 0,0 UV-I 0 W/m 0,0 km/h (0 Bft)
11.07.2013 01:40 14,4 C 13,4 C 74 % 1021,8 hPa 0,0 l/m 0 min 0 min 0,0 UV-I 0 W/m 10,3 km/h (2 Bft)
11.07.2013 01:42 14,4 C 13,4 C 74 % 1021,8 hPa 0,0 l/m 0 min 0 min 0,0 UV-I 0 W/m 2,6 km/h (1 Bft)
11.07.2013 01:44 14,4 C 13,4 C 75 % 1021,8 hPa 0,0 l/m 0 min 0 min 0,0 UV-I 0 W/m 10,3 km/h (2 Bft)
11.07.2013 01:46 14,4 C 13,4 C 75 % 1021,8 hPa 0,0 l/m 0 min 0 min 0,0 UV-I 0 W/m 10,3 km/h (2 Bft)
11.07.2013 01:48 14,4 C 13,4 C 75 % 1021,8 hPa 0,0 l/m 0 min 0 min 0,0 UV-I 0 W/m 12,9 km/h (3 Bft)
11.07.2013 01:50 14,3 C 13,4 C 75 % 1021,8 hPa 0,0 l/m 0 min 0 min 0,0 UV-I 0 W/m 15,4 km/h (3 Bft)
11.07.2013 01:52 14,3 C 13,4 C 75 % 1021,8 hPa 0,0 l/m 0 min 0 min 0,0 UV-I 0 W/m 7,7 km/h (2 Bft)
11.07.2013 01:54 14,3 C 13,4 C 76 % 1021,8 hPa 0,0 l/m 0 min 0 min 0,0 UV-I 0 W/m 12,9 km/h (3 Bft)
11.07.2013 01:56 14,3 C 13,4 C 76 % 1021,8 hPa 0,0 l/m 0 min 0 min 0,0 UV-I 0 W/m 5,1 km/h (1 Bft)
11.07.2013 01:58 14,3 C 13,4 C 76 % 1021,9 hPa 0,0 l/m 0 min 0 min 0,0 UV-I 0 W/m 0,0 km/h (0 Bft)
11.07.2013 02:00 14,3 C 13,4 C 76 % 1021,8 hPa 0,0 l/m 0 min 0 min 0,0 UV-I 0 W/m 2,6 km/h (1 Bft)
11.07.2013 02:02 14,3 C 13,4 C 76 % 1021,9 hPa 0,0 l/m 0 min 0 min 0,0 UV-I 0 W/m 10,3 km/h (2 Bft)
11.07.2013 02:06 14,3 C 13,4 C 77 % 1021,8 hPa 0,0 l/m 0 min 0 min 0,0 UV-I 0 W/m 0,0 km/h (0 Bft)
11.07.2013 02:08 14,2 C 13,4 C 77 % 1021,8 hPa 0,0 l/m 0 min 0 min 0,0 UV-I 0 W/m 0,0 km/h (0 Bft)
11.07.2013 02:10 14,2 C 13,4 C 77 % 1021,7 hPa 0,0 l/m 0 min 0 min 0,0 UV-I 0 W/m 7,7 km/h (2 Bft)
11.07.2013 02:12 14,2 C 13,4 C 77 % 1021,7 hPa 0,0 l/m 0 min 0 min 0,0 UV-I 0 W/m 0,0 km/h (0 Bft)
11.07.2013 02:14 14,2 C 13,4 C 77 % 1021,7 hPa 0,0 l/m 0 min 0 min 0,0 UV-I 0 W/m 0,0 km/h (0 Bft)
11.07.2013 02:16 14,2 C 13,4 C 77 % 1021,7 hPa 0,0 l/m 0 min 0 min 0,0 UV-I 0 W/m 7,7 km/h (2 Bft)
11.07.2013 02:18 14,2 C 13,4 C 77 % 1021,7 hPa 0,0 l/m 0 min 0 min 0,0 UV-I 0 W/m 7,7 km/h (2 Bft)
11.07.2013 02:20 14,2 C 13,4 C 78 % 1021,7 hPa 0,0 l/m 0 min 0 min 0,0 UV-I 0 W/m 7,7 km/h (2 Bft)
11.07.2013 02:22 14,2 C 13,4 C 78 % 1021,7 hPa 0,0 l/m 0 min 0 min 0,0 UV-I 0 W/m 10,3 km/h (2 Bft)
11.07.2013 02:24 14,2 C 13,4 C 78 % 1021,7 hPa 0,0 l/m 0 min 0 min 0,0 UV-I 0 W/m 5,1 km/h (1 Bft)
11.07.2013 02:26 14,2 C 13,4 C 78 % 1021,8 hPa 0,0 l/m 0 min 0 min 0,0 UV-I 0 W/m 12,9 km/h (3 Bft)
11.07.2013 02:28 14,2 C 13,4 C 78 % 1021,7 hPa 0,0 l/m 0 min 0 min 0,0 UV-I 0 W/m 5,1 km/h (1 Bft)
11.07.2013 02:30 14,2 C 13,4 C 78 % 1021,7 hPa 0,0 l/m 0 min 0 min 0,0 UV-I 0 W/m 2,6 km/h (1 Bft)
11.07.2013 02:32 14,2 C 13,4 C 78 % 1021,6 hPa 0,0 l/m 0 min 0 min 0,0 UV-I 0 W/m 0,0 km/h (0 Bft)
11.07.2013 02:34 14,2 C 13,4 C 78 % 1021,7 hPa 0,0 l/m 0 min 0 min 0,0 UV-I 0 W/m 0,0 km/h (0 Bft)
11.07.2013 02:36 14,2 C 13,4 C 78 % 1021,7 hPa 0,0 l/m 0 min 0 min 0,0 UV-I 0 W/m 0,0 km/h (0 Bft)
11.07.2013 02:38 14,2 C 13,4 C 79 % 1021,7 hPa 0,0 l/m 0 min 0 min 0,0 UV-I 0 W/m 7,7 km/h (2 Bft)
11.07.2013 02:40 14,2 C 13,4 C 79 % 1021,7 hPa 0,0 l/m 0 min 0 min 0,0 UV-I 0 W/m 10,3 km/h (2 Bft)
11.07.2013 02:42 14,2 C 13,4 C 79 % 1021,7 hPa 0,0 l/m 0 min 0 min 0,0 UV-I 0 W/m 12,9 km/h (3 Bft)
11.07.2013 02:44 14,2 C 13,4 C 79 % 1021,8 hPa 0,0 l/m 0 min 0 min 0,0 UV-I 0 W/m 10,3 km/h (2 Bft)
11.07.2013 02:46 14,2 C 13,4 C 79 % 1021,8 hPa 0,0 l/m 0 min 0 min 0,0 UV-I 0 W/m 12,9 km/h (3 Bft)
11.07.2013 02:48 14,1 C 13,4 C 79 % 1021,8 hPa 0,0 l/m 0 min 0 min 0,0 UV-I 0 W/m 12,9 km/h (3 Bft)
11.07.2013 02:50 14,1 C 13,4 C 79 % 1021,8 hPa 0,0 l/m 0 min 0 min 0,0 UV-I 0 W/m 5,1 km/h (1 Bft)
11.07.2013 02:52 14,1 C 13,4 C 79 % 1021,8 hPa 0,0 l/m 0 min 0 min 0,0 UV-I 0 W/m 10,3 km/h (2 Bft)
11.07.2013 02:54 14,1 C 13,4 C 79 % 1021,8 hPa 0,0 l/m 0 min 0 min 0,0 UV-I 0 W/m 5,1 km/h (1 Bft)
11.07.2013 02:56 14,1 C 13,4 C 79 % 1021,8 hPa 0,0 l/m 0 min 0 min 0,0 UV-I 0 W/m 2,6 km/h (1 Bft)
11.07.2013 02:58 14,1 C 13,4 C 79 % 1021,8 hPa 0,0 l/m 0 min 0 min 0,0 UV-I 0 W/m 0,0 km/h (0 Bft)
11.07.2013 03:00 14,1 C 13,4 C 79 % 1021,7 hPa 0,0 l/m 0 min 0 min 0,0 UV-I 0 W/m 7,7 km/h (2 Bft)
11.07.2013 03:02 14,1 C 13,4 C 79 % 1021,7 hPa 0,0 l/m 0 min 0 min 0,0 UV-I 0 W/m 10,3 km/h (2 Bft)
11.07.2013 03:06 14,0 C 13,4 C 79 % 1021,8 hPa 0,0 l/m 0 min 0 min 0,0 UV-I 0 W/m 18,0 km/h (3 Bft)
11.07.2013 03:10 14,0 C 13,4 C 79 % 1021,7 hPa 0,0 l/m 0 min 0 min 0,0 UV-I 0 W/m 18,0 km/h (3 Bft)
11.07.2013 03:12 14,0 C 13,4 C 79 % 1021,7 hPa 0,0 l/m 0 min 0 min 0,0 UV-I 0 W/m 10,3 km/h (2 Bft)
11.07.2013 03:14 14,0 C 13,4 C 79 % 1021,6 hPa 0,0 l/m 0 min 0 min 0,0 UV-I 0 W/m 15,4 km/h (3 Bft)
11.07.2013 03:16 14,0 C 13,4 C 79 % 1021,7 hPa 0,0 l/m 0 min 0 min 0,0 UV-I 0 W/m 10,3 km/h (2 Bft)
11.07.2013 03:18 14,0 C 13,4 C 80 % 1021,6 hPa 0,0 l/m 0 min 0 min 0,0 UV-I 0 W/m 10,3 km/h (2 Bft)
11.07.2013 03:20 14,0 C 12,9 C 80 % 1021,7 hPa 0,0 l/m 0 min 0 min 0,0 UV-I 0 W/m 7,7 km/h (2 Bft)
11.07.2013 03:22 14,0 C 12,9 C 80 % 1021,6 hPa 0,0 l/m 0 min 0 min 0,0 UV-I 0 W/m 12,9 km/h (3 Bft)
11.07.2013 03:24 14,0 C 13,4 C 80 % 1021,7 hPa 0,0 l/m 0 min 0 min 0,0 UV-I 0 W/m 7,7 km/h (2 Bft)
11.07.2013 03:26 14,0 C 13,4 C 80 % 1021,7 hPa 0,0 l/m 0 min 0 min 0,0 UV-I 0 W/m 10,3 km/h (2 Bft)
11.07.2013 03:28 14,0 C 13,4 C 80 % 1021,7 hPa 0,0 l/m 0 min 0 min 0,0 UV-I 0 W/m 2,6 km/h (1 Bft)
11.07.2013 03:30 14,0 C 13,4 C 80 % 1021,6 hPa 0,0 l/m 0 min 0 min 0,0 UV-I 0 W/m 5,1 km/h (1 Bft)
11.07.2013 03:32 14,0 C 13,4 C 80 % 1021,6 hPa 0,0 l/m 0 min 0 min 0,0 UV-I 0 W/m 12,9 km/h (3 Bft)
11.07.2013 03:34 14,0 C 12,9 C 80 % 1021,6 hPa 0,0 l/m 0 min 0 min 0,0 UV-I 0 W/m 12,9 km/h (3 Bft)
11.07.2013 03:36 14,0 C 13,4 C 80 % 1021,6 hPa 0,0 l/m 0 min 0 min 0,0 UV-I 0 W/m 5,1 km/h (1 Bft)
11.07.2013 03:38 14,0 C 12,9 C 80 % 1021,6 hPa 0,0 l/m 0 min 0 min 0,0 UV-I 0 W/m 7,7 km/h (2 Bft)
11.07.2013 03:40 14,0 C 12,9 C 81 % 1021,6 hPa 0,0 l/m 0 min 0 min 0,0 UV-I 0 W/m 10,3 km/h (2 Bft)
11.07.2013 03:42 14,0 C 12,9 C 81 % 1021,6 hPa 0,0 l/m 0 min 0 min 0,0 UV-I 0 W/m 7,7 km/h (2 Bft)
11.07.2013 03:44 14,0 C 12,9 C 81 % 1021,7 hPa 0,0 l/m 0 min 0 min 0,0 UV-I 0 W/m 5,1 km/h (1 Bft)
11.07.2013 03:46 14,0 C 12,9 C 81 % 1021,7 hPa 0,0 l/m 0 min 0 min 0,0 UV-I 0 W/m 10,3 km/h (2 Bft)
11.07.2013 03:48 14,0 C 12,9 C 81 % 1021,7 hPa 0,0 l/m 0 min 0 min 0,0 UV-I 0 W/m 5,1 km/h (1 Bft)
11.07.2013 03:50 13,9 C 12,9 C 81 % 1021,6 hPa 0,0 l/m 0 min 0 min 0,0 UV-I 0 W/m 10,3 km/h (2 Bft)
11.07.2013 03:52 13,9 C 12,9 C 81 % 1021,6 hPa 0,0 l/m 0 min 0 min 0,0 UV-I 0 W/m 10,3 km/h (2 Bft)
11.07.2013 03:54 13,9 C 12,9 C 81 % 1021,6 hPa 0,0 l/m 0 min 0 min 0,0 UV-I 0 W/m 7,7 km/h (2 Bft)
11.07.2013 03:56 13,9 C 12,9 C 81 % 1021,6 hPa 0,0 l/m 0 min 0 min 0,0 UV-I 0 W/m 12,9 km/h (3 Bft)
11.07.2013 03:58 13,9 C 12,9 C 81 % 1021,6 hPa 0,0 l/m 0 min 0 min 0,0 UV-I 0 W/m 15,4 km/h (3 Bft)
11.07.2013 04:00 13,9 C 12,9 C 81 % 1021,6 hPa 0,0 l/m 0 min 0 min 0,0 UV-I 0 W/m 10,3 km/h (2 Bft)
11.07.2013 04:02 13,9 C 12,9 C 81 % 1021,7 hPa 0,0 l/m 0 min 0 min 0,0 UV-I 0 W/m 12,9 km/h (3 Bft)
11.07.2013 04:06 13,8 C 12,9 C 81 % 1021,8 hPa 0,0 l/m 0 min 0 min 0,0 UV-I 0 W/m 12,9 km/h (3 Bft)
11.07.2013 04:08 13,8 C 12,9 C 81 % 1021,8 hPa 0,0 l/m 0 min 0 min 0,0 UV-I 0 W/m 7,7 km/h (2 Bft)
11.07.2013 04:10 13,8 C 12,9 C 81 % 1021,8 hPa 0,0 l/m 0 min 0 min 0,0 UV-I 0 W/m 7,7 km/h (2 Bft)
11.07.2013 04:12 13,8 C 12,9 C 81 % 1021,8 hPa 0,0 l/m 0 min 0 min 0,0 UV-I 0 W/m 5,1 km/h (1 Bft)
11.07.2013 04:14 13,8 C 12,9 C 81 % 1021,8 hPa 0,0 l/m 0 min 0 min 0,0 UV-I 0 W/m 5,1 km/h (1 Bft)
11.07.2013 04:16 13,8 C 12,9 C 81 % 1021,7 hPa 0,0 l/m 0 min 0 min 0,0 UV-I 0 W/m 10,3 km/h (2 Bft)
11.07.2013 04:18 13,8 C 12,9 C 81 % 1021,8 hPa 0,0 l/m 0 min 0 min 0,0 UV-I 0 W/m 0,0 km/h (0 Bft)
11.07.2013 04:20 13,8 C 12,9 C 81 % 1021,7 hPa 0,0 l/m 0 min 0 min 0,0 UV-I 0 W/m 10,3 km/h (2 Bft)
11.07.2013 04:22 13,8 C 12,9 C 81 % 1021,6 hPa 0,0 l/m 0 min 0 min 0,0 UV-I 0 W/m 12,9 km/h (3 Bft)
11.07.2013 04:24 13,8 C 12,9 C 81 % 1021,6 hPa 0,0 l/m 0 min 0 min 0,0 UV-I 0 W/m 0,0 km/h (0 Bft)
11.07.2013 04:26 13,8 C 12,9 C 81 % 1021,6 hPa 0,0 l/m 0 min 0 min 0,0 UV-I 0 W/m 12,9 km/h (3 Bft)
11.07.2013 04:28 13,8 C 12,9 C 81 % 1021,7 hPa 0,0 l/m 0 min 0 min 0,0 UV-I 0 W/m 12,9 km/h (3 Bft)
11.07.2013 04:30 13,8 C 12,9 C 81 % 1021,7 hPa 0,0 l/m 0 min 0 min 0,0 UV-I 0 W/m 10,3 km/h (2 Bft)
11.07.2013 04:32 13,7 C 12,9 C 81 % 1021,7 hPa 0,0 l/m 0 min 0 min 0,0 UV-I 0 W/m 12,9 km/h (3 Bft)
11.07.2013 04:34 13,7 C 12,9 C 81 % 1021,7 hPa 0,0 l/m 0 min 0 min 0,0 UV-I 0 W/m 12,9 km/h (3 Bft)
11.07.2013 04:36 13,7 C 12,9 C 81 % 1021,7 hPa 0,0 l/m 0 min 0 min 0,0 UV-I 0 W/m 12,9 km/h (3 Bft)
11.07.2013 04:38 13,7 C 12,9 C 81 % 1021,6 hPa 0,0 l/m 0 min 0 min 0,0 UV-I 0 W/m 12,9 km/h (3 Bft)
11.07.2013 04:40 13,7 C 12,9 C 81 % 1021,6 hPa 0,0 l/m 0 min 0 min 0,0 UV-I 0 W/m 10,3 km/h (2 Bft)
11.07.2013 04:42 13,7 C 12,9 C 81 % 1021,6 hPa 0,0 l/m 0 min 0 min 0,0 UV-I 0 W/m 7,7 km/h (2 Bft)
11.07.2013 04:44 13,7 C 12,9 C 81 % 1021,7 hPa 0,0 l/m 0 min 0 min 0,0 UV-I 0 W/m 12,9 km/h (3 Bft)
11.07.2013 04:46 13,7 C 12,9 C 82 % 1021,6 hPa 0,0 l/m 0 min 0 min 0,0 UV-I 0 W/m 7,7 km/h (2 Bft)
11.07.2013 04:48 13,7 C 12,9 C 82 % 1021,7 hPa 0,0 l/m 0 min 0 min 0,0 UV-I 0 W/m 12,9 km/h (3 Bft)
11.07.2013 04:50 13,7 C 12,9 C 82 % 1021,6 hPa 0,0 l/m 0 min 0 min 0,0 UV-I 0 W/m 7,7 km/h (2 Bft)
11.07.2013 04:52 13,7 C 12,9 C 82 % 1021,6 hPa 0,0 l/m 0 min 0 min 0,0 UV-I 0 W/m 12,9 km/h (3 Bft)
11.07.2013 04:54 13,7 C 12,9 C 82 % 1021,6 hPa 0,0 l/m 0 min 0 min 0,0 UV-I 0 W/m 18,0 km/h (3 Bft)
11.07.2013 04:56 13,7 C 12,9 C 82 % 1021,6 hPa 0,0 l/m 0 min 0 min 0,0 UV-I 0 W/m 10,3 km/h (2 Bft)
11.07.2013 04:58 13,7 C 12,9 C 82 % 1021,6 hPa 0,0 l/m 0 min 0 min 0,0 UV-I 0 W/m 12,9 km/h (3 Bft)
11.07.2013 05:00 13,6 C 12,9 C 82 % 1021,6 hPa 0,0 l/m 0 min 0 min 0,0 UV-I 0 W/m 10,3 km/h (2 Bft)
11.07.2013 05:02 13,7 C 12,9 C 82 % 1021,6 hPa 0,0 l/m 0 min 0 min 0,0 UV-I 0 W/m 18,0 km/h (3 Bft)
11.07.2013 05:06 13,6 C 12,9 C 82 % 1021,6 hPa 0,0 l/m 0 min 0 min 0,0 UV-I 0 W/m 15,4 km/h (3 Bft)
11.07.2013 05:08 13,6 C 12,9 C 82 % 1021,6 hPa 0,0 l/m 0 min 0 min 0,0 UV-I 0 W/m 12,9 km/h (3 Bft)
11.07.2013 05:10 13,6 C 12,9 C 82 % 1021,6 hPa 0,0 l/m 0 min 0 min 0,0 UV-I 0 W/m 15,4 km/h (3 Bft)
11.07.2013 05:12 13,6 C 12,9 C 82 % 1021,6 hPa 0,0 l/m 0 min 0 min 0,0 UV-I 0 W/m 12,9 km/h (3 Bft)
11.07.2013 05:14 13,6 C 12,9 C 82 % 1021,6 hPa 0,0 l/m 0 min 0 min 0,0 UV-I 0 W/m 12,9 km/h (3 Bft)
11.07.2013 05:16 13,6 C 12,9 C 82 % 1021,6 hPa 0,0 l/m 0 min 0 min 0,0 UV-I 0 W/m 10,3 km/h (2 Bft)
11.07.2013 05:18 13,6 C 12,9 C 82 % 1021,6 hPa 0,0 l/m 0 min 0 min 0,0 UV-I 0 W/m 10,3 km/h (2 Bft)
11.07.2013 05:20 13,6 C 12,9 C 83 % 1021,6 hPa 0,0 l/m 0 min 0 min 0,0 UV-I 0 W/m 12,9 km/h (3 Bft)
11.07.2013 05:22 13,6 C 12,9 C 83 % 1021,6 hPa 0,0 l/m 0 min 0 min 0,0 UV-I 0 W/m 12,9 km/h (3 Bft)
11.07.2013 05:24 13,6 C 12,9 C 83 % 1021,5 hPa 0,0 l/m 0 min 0 min 0,0 UV-I 0 W/m 12,9 km/h (3 Bft)
11.07.2013 05:26 13,6 C 12,9 C 83 % 1021,6 hPa 0,0 l/m 0 min 0 min 0,0 UV-I 0 W/m 10,3 km/h (2 Bft)
11.07.2013 05:28 13,5 C 12,9 C 83 % 1021,6 hPa 0,0 l/m 0 min 0 min 0,0 UV-I 0 W/m 10,3 km/h (2 Bft)
11.07.2013 05:30 13,5 C 12,9 C 83 % 1021,6 hPa 0,0 l/m 0 min 0 min 0,0 UV-I 0 W/m 10,3 km/h (2 Bft)
11.07.2013 05:32 13,5 C 12,9 C 83 % 1021,6 hPa 0,0 l/m 0 min 0 min 0,0 UV-I 0 W/m 0,0 km/h (0 Bft)
11.07.2013 05:34 13,5 C 12,9 C 83 % 1021,5 hPa 0,0 l/m 0 min 0 min 0,0 UV-I 0 W/m 2,6 km/h (1 Bft)
11.07.2013 05:36 13,4 C 12,9 C 83 % 1021,6 hPa 0,0 l/m 0 min 0 min 0,0 UV-I 0 W/m 10,3 km/h (2 Bft)
11.07.2013 05:38 13,5 C 12,9 C 83 % 1021,6 hPa 0,0 l/m 0 min 0 min 0,0 UV-I 0 W/m 10,3 km/h (2 Bft)
11.07.2013 05:40 13,4 C 12,9 C 83 % 1021,5 hPa 0,0 l/m 0 min 0 min 0,0 UV-I 0 W/m 15,4 km/h (3 Bft)
11.07.2013 05:42 13,4 C 12,9 C 83 % 1021,5 hPa 0,0 l/m 0 min 0 min 0,0 UV-I 0 W/m 7,7 km/h (2 Bft)
11.07.2013 05:44 13,4 C 12,9 C 83 % 1021,6 hPa 0,0 l/m 0 min 0 min 0,0 UV-I 5 W/m 5,1 km/h (1 Bft)
11.07.2013 05:46 13,4 C 12,9 C 84 % 1021,6 hPa 0,0 l/m 0 min 0 min 0,0 UV-I 5 W/m 2,6 km/h (1 Bft)
11.07.2013 05:48 13,4 C 12,9 C 84 % 1021,5 hPa 0,0 l/m 0 min 0 min 0,0 UV-I 5 W/m 0,0 km/h (0 Bft)
11.07.2013 05:50 13,4 C 12,9 C 84 % 1021,7 hPa 0,0 l/m 0 min 0 min 0,0 UV-I 5 W/m 12,9 km/h (3 Bft)
11.07.2013 05:52 13,4 C 12,9 C 84 % 1021,6 hPa 0,0 l/m 0 min 0 min 0,0 UV-I 5 W/m 12,9 km/h (3 Bft)
11.07.2013 05:54 13,4 C 12,9 C 84 % 1021,6 hPa 0,0 l/m 0 min 0 min 0,0 UV-I 5 W/m 15,4 km/h (3 Bft)
11.07.2013 05:56 13,4 C 12,9 C 84 % 1021,6 hPa 0,0 l/m 0 min 0 min 0,0 UV-I 7 W/m 7,7 km/h (2 Bft)
11.07.2013 05:58 13,4 C 12,9 C 84 % 1021,6 hPa 0,0 l/m 0 min 0 min 0,0 UV-I 7 W/m 12,9 km/h (3 Bft)
11.07.2013 06:00 13,4 C 12,9 C 84 % 1021,7 hPa 0,0 l/m 0 min 0 min 0,0 UV-I 7 W/m 12,9 km/h (3 Bft)
11.07.2013 06:02 13,4 C 12,9 C 84 % 1021,7 hPa 0,0 l/m 0 min 0 min 0,0 UV-I 7 W/m 12,9 km/h (3 Bft)
11.07.2013 06:06 13,4 C 12,9 C 84 % 1021,7 hPa 0,0 l/m 0 min 0 min 0,0 UV-I 7 W/m 12,9 km/h (3 Bft)
11.07.2013 06:08 13,4 C 12,9 C 84 % 1021,7 hPa 0,0 l/m 0 min 0 min 0,0 UV-I 9 W/m 12,9 km/h (3 Bft)
11.07.2013 06:10 13,4 C 12,9 C 84 % 1021,7 hPa 0,0 l/m 0 min 0 min 0,0 UV-I 9 W/m 10,3 km/h (2 Bft)
11.07.2013 06:12 13,4 C 12,9 C 84 % 1021,7 hPa 0,0 l/m 0 min 0 min 0,0 UV-I 9 W/m 2,6 km/h (1 Bft)
11.07.2013 06:14 13,4 C 12,9 C 84 % 1021,7 hPa 0,0 l/m 0 min 0 min 0,0 UV-I 11 W/m 7,7 km/h (2 Bft)
11.07.2013 06:16 13,4 C 12,9 C 84 % 1021,8 hPa 0,0 l/m 0 min 0 min 0,0 UV-I 11 W/m 2,6 km/h (1 Bft)
11.07.2013 06:18 13,3 C 12,9 C 84 % 1021,8 hPa 0,0 l/m 0 min 0 min 0,0 UV-I 11 W/m 0,0 km/h (0 Bft)
11.07.2013 06:20 13,3 C 12,9 C 84 % 1021,8 hPa 0,0 l/m 0 min 0 min 0,0 UV-I 11 W/m 12,9 km/h (3 Bft)
11.07.2013 06:22 13,3 C 12,9 C 84 % 1021,9 hPa 0,0 l/m 0 min 0 min 0,0 UV-I 11 W/m 10,3 km/h (2 Bft)
11.07.2013 06:24 13,4 C 12,9 C 84 % 1021,9 hPa 0,0 l/m 0 min 0 min 0,0 UV-I 12 W/m 10,3 km/h (2 Bft)
11.07.2013 06:26 13,3 C 12,9 C 84 % 1021,8 hPa 0,0 l/m 0 min 0 min 0,0 UV-I 12 W/m 10,3 km/h (2 Bft)
11.07.2013 06:28 13,3 C 12,9 C 84 % 1021,9 hPa 0,0 l/m 0 min 0 min 0,0 UV-I 12 W/m 12,9 km/h (3 Bft)
11.07.2013 06:30 13,3 C 12,9 C 84 % 1021,9 hPa 0,0 l/m 0 min 0 min 0,0 UV-I 14 W/m 12,9 km/h (3 Bft)
11.07.2013 06:32 13,3 C 12,9 C 84 % 1021,9 hPa 0,0 l/m 0 min 0 min 0,0 UV-I 16 W/m 10,3 km/h (2 Bft)
11.07.2013 06:33 13,3 C 12,9 C 84 % 1021,9 hPa 0,0 l/m 0 min 0 min 0,0 UV-I 16 W/m 7,7 km/h (2 Bft)
11.07.2013 06:34 13,3 C 12,9 C 84 % 1021,9 hPa 0,0 l/m 0 min 0 min 0,0 UV-I 16 W/m 7,7 km/h (2 Bft)
11.07.2013 06:35 13,3 C 12,9 C 84 % 1021,9 hPa 0,0 l/m 0 min 0 min 0,0 UV-I 16 W/m 2,6 km/h (1 Bft)
11.07.2013 06:36 13,3 C 12,9 C 84 % 1021,9 hPa 0,0 l/m 0 min 0 min 0,0 UV-I 16 W/m 10,3 km/h (2 Bft)
11.07.2013 06:37 13,3 C 12,9 C 84 % 1022,0 hPa 0,0 l/m 0 min 0 min 0,0 UV-I 16 W/m 10,3 km/h (2 Bft)
11.07.2013 06:38 13,3 C 12,9 C 84 % 1021,9 hPa 0,0 l/m 0 min 0 min 0,0 UV-I 18 W/m 12,9 km/h (3 Bft)
11.07.2013 06:39 13,3 C 12,9 C 84 % 1021,9 hPa 0,0 l/m 0 min 0 min 0,0 UV-I 18 W/m 7,7 km/h (2 Bft)
11.07.2013 06:40 13,3 C 12,9 C 84 % 1022,0 hPa 0,0 l/m 0 min 0 min 0,0 UV-I 18 W/m 10,3 km/h (2 Bft)
11.07.2013 06:41 13,3 C 12,9 C 84 % 1021,9 hPa 0,0 l/m 0 min 0 min 0,0 UV-I 19 W/m 5,1 km/h (1 Bft)
11.07.2013 06:42 13,3 C 12,9 C 84 % 1022,0 hPa 0,0 l/m 0 min 0 min 0,0 UV-I 19 W/m 10,3 km/h (2 Bft)
11.07.2013 06:43 13,3 C 12,9 C 84 % 1021,9 hPa 0,0 l/m 0 min 0 min 0,0 UV-I 21 W/m 7,7 km/h (2 Bft)
11.07.2013 06:48 13,3 C 12,9 C 84 % 1021,9 hPa 0,0 l/m 0 min 0 min 0,0 UV-I 25 W/m 12,9 km/h (3 Bft)
11.07.2013 06:50 13,3 C 12,9 C 84 % 1021,9 hPa 0,0 l/m 0 min 0 min 0,0 UV-I 25 W/m 5,1 km/h (1 Bft)
11.07.2013 06:52 13,3 C 12,9 C 84 % 1021,9 hPa 0,0 l/m 0 min 0 min 0,0 UV-I 23 W/m 12,9 km/h (3 Bft)
11.07.2013 06:54 13,3 C 12,9 C 84 % 1021,9 hPa 0,0 l/m 0 min 0 min 0,0 UV-I 23 W/m 10,3 km/h (2 Bft)
11.07.2013 06:56 13,3 C 12,9 C 84 % 1021,9 hPa 0,0 l/m 0 min 0 min 0,0 UV-I 25 W/m 12,9 km/h (3 Bft)
11.07.2013 06:58 13,3 C 12,9 C 84 % 1021,9 hPa 0,0 l/m 0 min 0 min 0,0 UV-I 25 W/m 5,1 km/h (1 Bft)
11.07.2013 07:00 13,3 C 12,9 C 84 % 1022,0 hPa 0,0 l/m 0 min 0 min 0,0 UV-I 25 W/m 0,0 km/h (0 Bft)
11.07.2013 07:02 13,3 C 12,9 C 84 % 1022,0 hPa 0,0 l/m 0 min 0 min 0,0 UV-I 26 W/m 2,6 km/h (1 Bft)
11.07.2013 07:06 13,3 C 12,9 C 84 % 1022,0 hPa 0,0 l/m 0 min 0 min 0,0 UV-I 26 W/m 12,9 km/h (3 Bft)
11.07.2013 07:08 13,3 C 12,9 C 84 % 1022,0 hPa 0,0 l/m 0 min 0 min 0,0 UV-I 26 W/m 10,3 km/h (2 Bft)
11.07.2013 07:10 13,3 C 12,9 C 85 % 1022,0 hPa 0,0 l/m 0 min 0 min 0,0 UV-I 26 W/m 7,7 km/h (2 Bft)
11.07.2013 07:12 13,3 C 12,9 C 84 % 1022,0 hPa 0,0 l/m 0 min 0 min 0,0 UV-I 28 W/m 0,0 km/h (0 Bft)
11.07.2013 07:14 13,3 C 12,9 C 85 % 1022,0 hPa 0,0 l/m 0 min 0 min 0,0 UV-I 30 W/m 0,0 km/h (0 Bft)
11.07.2013 07:16 13,3 C 12,9 C 85 % 1022,0 hPa 0,0 l/m 0 min 0 min 0,0 UV-I 32 W/m 0,0 km/h (0 Bft)
11.07.2013 07:18 13,3 C 12,9 C 85 % 1022,0 hPa 0,0 l/m 0 min 0 min 0,0 UV-I 33 W/m 7,7 km/h (2 Bft)
11.07.2013 07:20 13,3 C 12,9 C 85 % 1022,0 hPa 0,0 l/m 0 min 0 min 0,0 UV-I 35 W/m 10,3 km/h (2 Bft)
11.07.2013 07:22 13,3 C 12,9 C 85 % 1022,1 hPa 0,0 l/m 0 min 0 min 0,0 UV-I 35 W/m 7,7 km/h (2 Bft)
11.07.2013 07:24 13,3 C 12,9 C 85 % 1022,0 hPa 0,0 l/m 0 min 0 min 0,0 UV-I 37 W/m 10,3 km/h (2 Bft)
11.07.2013 07:26 13,3 C 12,9 C 85 % 1022,0 hPa 0,0 l/m 0 min 0 min 0,0 UV-I 39 W/m 7,7 km/h (2 Bft)
11.07.2013 07:28 13,3 C 12,9 C 85 % 1022,0 hPa 0,0 l/m 0 min 0 min 0,0 UV-I 39 W/m 15,4 km/h (3 Bft)
11.07.2013 07:30 13,3 C 12,9 C 85 % 1022,0 hPa 0,0 l/m 0 min 0 min 0,0 UV-I 40 W/m 10,3 km/h (2 Bft)
11.07.2013 07:32 13,3 C 12,9 C 85 % 1021,9 hPa 0,0 l/m 0 min 0 min 0,0 UV-I 42 W/m 7,7 km/h (2 Bft)
11.07.2013 07:34 13,3 C 12,9 C 85 % 1022,0 hPa 0,0 l/m 0 min 0 min 0,0 UV-I 44 W/m 0,0 km/h (0 Bft)
11.07.2013 07:36 13,3 C 12,9 C 85 % 1022,0 hPa 0,0 l/m 0 min 0 min 0,0 UV-I 49 W/m 7,7 km/h (2 Bft)
11.07.2013 07:38 13,3 C 12,9 C 85 % 1022,0 hPa 0,0 l/m 0 min 0 min 0,0 UV-I 53 W/m 7,7 km/h (2 Bft)
11.07.2013 07:40 13,3 C 12,9 C 85 % 1022,1 hPa 0,0 l/m 0 min 0 min 0,0 UV-I 54 W/m 7,7 km/h (2 Bft)
11.07.2013 07:42 13,3 C 12,9 C 85 % 1022,0 hPa 0,0 l/m 0 min 0 min 0,0 UV-I 53 W/m 2,6 km/h (1 Bft)
11.07.2013 07:44 13,3 C 12,9 C 85 % 1022,1 hPa 0,0 l/m 0 min 0 min 0,0 UV-I 54 W/m 7,7 km/h (2 Bft)
11.07.2013 07:46 13,3 C 12,9 C 85 % 1022,1 hPa 0,0 l/m 0 min 0 min 0,0 UV-I 60 W/m 12,9 km/h (3 Bft)
11.07.2013 07:48 13,3 C 12,9 C 84 % 1022,0 hPa 0,0 l/m 0 min 0 min 0,0 UV-I 67 W/m 10,3 km/h (2 Bft)
11.07.2013 07:50 13,3 C 12,9 C 84 % 1022,0 hPa 0,0 l/m 0 min 0 min 0,0 UV-I 72 W/m 7,7 km/h (2 Bft)
11.07.2013 07:52 13,3 C 12,9 C 85 % 1022,1 hPa 0,0 l/m 0 min 0 min 0,0 UV-I 72 W/m 15,4 km/h (3 Bft)
11.07.2013 07:54 13,3 C 12,9 C 84 % 1022,1 hPa 0,0 l/m 0 min 0 min 0,0 UV-I 67 W/m 10,3 km/h (2 Bft)
11.07.2013 07:56 13,3 C 12,9 C 84 % 1022,1 hPa 0,0 l/m 0 min 0 min 0,0 UV-I 65 W/m 12,9 km/h (3 Bft)
11.07.2013 07:58 13,3 C 12,9 C 84 % 1022,2 hPa 0,0 l/m 0 min 0 min 0,0 UV-I 67 W/m 12,9 km/h (3 Bft)
11.07.2013 08:00 13,4 C 12,9 C 84 % 1022,2 hPa 0,0 l/m 0 min 0 min 0,0 UV-I 67 W/m 10,3 km/h (2 Bft)
11.07.2013 08:02 13,4 C 13,4 C 84 % 1022,2 hPa 0,0 l/m 0 min 0 min 0,0 UV-I 67 W/m 0,0 km/h (0 Bft)
11.07.2013 08:06 13,4 C 13,4 C 84 % 1022,2 hPa 0,0 l/m 0 min 0 min 0,0 UV-I 69 W/m 5,1 km/h (1 Bft)
11.07.2013 08:08 13,4 C 13,4 C 84 % 1022,2 hPa 0,0 l/m 0 min 0 min 0,0 UV-I 70 W/m 10,3 km/h (2 Bft)
11.07.2013 08:10 13,4 C 13,4 C 84 % 1022,1 hPa 0,0 l/m 0 min 0 min 0,0 UV-I 72 W/m 7,7 km/h (2 Bft)
11.07.2013 08:12 13,4 C 13,4 C 84 % 1022,2 hPa 0,0 l/m 0 min 0 min 0,0 UV-I 79 W/m 10,3 km/h (2 Bft)
11.07.2013 08:14 13,4 C 13,4 C 84 % 1022,2 hPa 0,0 l/m 0 min 0 min 0,0 UV-I 81 W/m 12,9 km/h (3 Bft)
11.07.2013 08:16 13,5 C 13,4 C 84 % 1022,2 hPa 0,0 l/m 0 min 0 min 0,0 UV-I 83 W/m 10,3 km/h (2 Bft)
11.07.2013 08:18 13,5 C 13,4 C 84 % 1022,2 hPa 0,0 l/m 0 min 0 min 0,0 UV-I 88 W/m 10,3 km/h (2 Bft)
11.07.2013 08:20 13,5 C 13,4 C 84 % 1022,1 hPa 0,0 l/m 0 min 0 min 0,0 UV-I 91 W/m 12,9 km/h (3 Bft)
11.07.2013 08:22 13,5 C 13,4 C 84 % 1022,1 hPa 0,0 l/m 0 min 0 min 0,0 UV-I 93 W/m 15,4 km/h (3 Bft)
11.07.2013 08:24 13,5 C 13,4 C 84 % 1022,1 hPa 0,0 l/m 0 min 0 min 0,0 UV-I 97 W/m 12,9 km/h (3 Bft)
11.07.2013 08:26 13,5 C 13,4 C 84 % 1022,1 hPa 0,0 l/m 0 min 0 min 0,0 UV-I 102 W/m 10,3 km/h (2 Bft)
11.07.2013 08:28 13,6 C 13,4 C 84 % 1022,1 hPa 0,0 l/m 0 min 0 min 0,0 UV-I 105 W/m 10,3 km/h (2 Bft)
11.07.2013 08:30 13,6 C 13,4 C 84 % 1022,1 hPa 0,0 l/m 0 min 0 min 0,0 UV-I 107 W/m 7,7 km/h (2 Bft)
11.07.2013 08:32 13,6 C 13,4 C 84 % 1022,1 hPa 0,0 l/m 0 min 0 min 0,0 UV-I 109 W/m 7,7 km/h (2 Bft)
11.07.2013 08:34 13,6 C 13,4 C 84 % 1022,1 hPa 0,0 l/m 0 min 0 min 0,0 UV-I 114 W/m 0,0 km/h (0 Bft)
11.07.2013 08:36 13,6 C 13,4 C 84 % 1022,1 hPa 0,0 l/m 0 min 0 min 0,0 UV-I 120 W/m 7,7 km/h (2 Bft)
11.07.2013 08:38 13,7 C 13,4 C 84 % 1022,1 hPa 0,0 l/m 0 min 0 min 0,0 UV-I 127 W/m 18,0 km/h (3 Bft)
11.07.2013 08:40 13,7 C 13,4 C 84 % 1022,1 hPa 0,0 l/m 0 min 0 min 0,0 UV-I 130 W/m 10,3 km/h (2 Bft)
11.07.2013 08:42 13,7 C 13,4 C 83 % 1022,2 hPa 0,0 l/m 0 min 0 min 0,0 UV-I 132 W/m 15,4 km/h (3 Bft)
11.07.2013 08:44 13,7 C 13,4 C 83 % 1022,2 hPa 0,0 l/m 0 min 0 min 0,0 UV-I 134 W/m 10,3 km/h (2 Bft)
11.07.2013 08:46 13,7 C 13,4 C 83 % 1022,2 hPa 0,0 l/m 0 min 0 min 0,0 UV-I 139 W/m 20,6 km/h (4 Bft)
11.07.2013 08:48 13,7 C 13,4 C 83 % 1022,2 hPa 0,0 l/m 0 min 0 min 0,0 UV-I 141 W/m 12,9 km/h (3 Bft)
11.07.2013 08:50 13,7 C 14,0 C 83 % 1022,2 hPa 0,0 l/m 0 min 0 min 0,0 UV-I 139 W/m 10,3 km/h (2 Bft)
11.07.2013 08:52 13,8 C 14,0 C 83 % 1022,2 hPa 0,0 l/m 0 min 0 min 0,0 UV-I 139 W/m 15,4 km/h (3 Bft)
11.07.2013 08:54 13,8 C 14,0 C 83 % 1022,3 hPa 0,0 l/m 0 min 0 min 0,0 UV-I 142 W/m 12,9 km/h (3 Bft)
11.07.2013 08:56 13,8 C 14,0 C 83 % 1022,3 hPa 0,0 l/m 0 min 0 min 0,0 UV-I 149 W/m 12,9 km/h (3 Bft)
11.07.2013 08:58 13,8 C 14,0 C 83 % 1022,3 hPa 0,0 l/m 0 min 0 min 0,0 UV-I 162 W/m 7,7 km/h (2 Bft)
11.07.2013 09:00 13,9 C 14,0 C 83 % 1022,3 hPa 0,0 l/m 0 min 0 min 0,0 UV-I 167 W/m 10,3 km/h (2 Bft)
11.07.2013 09:02 13,9 C 14,0 C 82 % 1022,2 hPa 0,0 l/m 0 min 0 min 0,0 UV-I 178 W/m 18,0 km/h (3 Bft)
11.07.2013 09:06 14,0 C 14,6 C 82 % 1022,3 hPa 0,0 l/m 0 min 0 min 0,0 UV-I 181 W/m 10,3 km/h (2 Bft)
11.07.2013 09:08 14,0 C 14,6 C 82 % 1022,3 hPa 0,0 l/m 0 min 0 min 0,0 UV-I 193 W/m 12,9 km/h (3 Bft)
11.07.2013 09:10 14,0 C 14,6 C 82 % 1022,4 hPa 0,0 l/m 0 min 0 min 0,0 UV-I 202 W/m 10,3 km/h (2 Bft)
11.07.2013 09:12 14,0 C 14,6 C 82 % 1022,4 hPa 0,0 l/m 0 min 0 min 0,0 UV-I 199 W/m 12,9 km/h (3 Bft)
11.07.2013 09:14 14,1 C 14,6 C 82 % 1022,4 hPa 0,0 l/m 0 min 0 min 0,0 UV-I 197 W/m 12,9 km/h (3 Bft)
11.07.2013 09:16 14,1 C 14,6 C 82 % 1022,4 hPa 0,0 l/m 0 min 0 min 0,0 UV-I 199 W/m 12,9 km/h (3 Bft)
11.07.2013 09:18 14,2 C 14,6 C 82 % 1022,4 hPa 0,0 l/m 0 min 0 min 0,0 UV-I 199 W/m 20,6 km/h (4 Bft)
11.07.2013 09:20 14,2 C 14,6 C 82 % 1022,4 hPa 0,0 l/m 0 min 0 min 0,0 UV-I 197 W/m 20,6 km/h (4 Bft)
11.07.2013 09:22 14,2 C 14,6 C 81 % 1022,4 hPa 0,0 l/m 0 min 0 min 0,0 UV-I 200 W/m 10,3 km/h (2 Bft)
11.07.2013 09:24 14,3 C 14,6 C 81 % 1022,4 hPa 0,0 l/m 0 min 0 min 0,0 UV-I 202 W/m 5,1 km/h (1 Bft)
11.07.2013 09:26 14,3 C 14,6 C 81 % 1022,5 hPa 0,0 l/m 0 min 0 min 0,0 UV-I 206 W/m 15,4 km/h (3 Bft)
11.07.2013 09:28 14,3 C 14,6 C 81 % 1022,5 hPa 0,0 l/m 0 min 0 min 0,0 UV-I 209 W/m 12,9 km/h (3 Bft)
11.07.2013 09:30 14,3 C 15,1 C 81 % 1022,5 hPa 0,0 l/m 0 min 0 min 0,0 UV-I 211 W/m 7,7 km/h (2 Bft)
11.07.2013 09:32 14,4 C 15,1 C 81 % 1022,5 hPa 0,0 l/m 0 min 0 min 0,0 UV-I 207 W/m 7,7 km/h (2 Bft)
11.07.2013 09:34 14,4 C 14,6 C 81 % 1022,5 hPa 0,0 l/m 0 min 0 min 0,0 UV-I 202 W/m 12,9 km/h (3 Bft)
11.07.2013 09:36 14,4 C 14,6 C 80 % 1022,5 hPa 0,0 l/m 0 min 0 min 0,0 UV-I 200 W/m 7,7 km/h (2 Bft)
11.07.2013 09:38 14,5 C 14,6 C 80 % 1022,5 hPa 0,0 l/m 0 min 0 min 0,0 UV-I 197 W/m 12,9 km/h (3 Bft)
11.07.2013 09:40 14,5 C 14,6 C 80 % 1022,5 hPa 0,0 l/m 0 min 0 min 0,0 UV-I 207 W/m 15,4 km/h (3 Bft)
11.07.2013 09:42 14,5 C 14,6 C 79 % 1022,5 hPa 0,0 l/m 0 min 0 min 0,0 UV-I 209 W/m 7,7 km/h (2 Bft)
11.07.2013 09:44 14,6 C 15,1 C 80 % 1022,5 hPa 0,0 l/m 0 min 0 min 0,0 UV-I 206 W/m 12,9 km/h (3 Bft)
11.07.2013 09:46 14,6 C 15,1 C 80 % 1022,4 hPa 0,0 l/m 0 min 0 min 0,0 UV-I 197 W/m 7,7 km/h (2 Bft)
11.07.2013 09:48 14,7 C 15,1 C 79 % 1022,5 hPa 0,0 l/m 0 min 0 min 0,0 UV-I 190 W/m 10,3 km/h (2 Bft)
11.07.2013 09:50 14,7 C 15,1 C 79 % 1022,4 hPa 0,0 l/m 0 min 0 min 0,0 UV-I 188 W/m 12,9 km/h (3 Bft)
11.07.2013 09:52 14,7 C 15,1 C 79 % 1022,5 hPa 0,0 l/m 0 min 0 min 0,0 UV-I 192 W/m 5,1 km/h (1 Bft)
11.07.2013 09:54 14,7 C 15,7 C 79 % 1022,5 hPa 0,0 l/m 0 min 0 min 0,0 UV-I 186 W/m 0,0 km/h (0 Bft)
11.07.2013 09:56 14,8 C 15,7 C 79 % 1022,4 hPa 0,0 l/m 0 min 0 min 0,0 UV-I 179 W/m 10,3 km/h (2 Bft)
11.07.2013 09:58 14,8 C 15,1 C 78 % 1022,4 hPa 0,0 l/m 0 min 0 min 0,0 UV-I 171 W/m 10,3 km/h (2 Bft)
11.07.2013 10:00 14,8 C 15,1 C 78 % 1022,4 hPa 0,0 l/m 0 min 0 min 0,0 UV-I 158 W/m 12,9 km/h (3 Bft)
11.07.2013 10:02 14,8 C 15,1 C 78 % 1022,4 hPa 0,0 l/m 0 min 0 min 0,0 UV-I 156 W/m 15,4 km/h (3 Bft)
11.07.2013 10:03 14,8 C 15,1 C 78 % 1022,4 hPa 0,0 l/m 0 min 0 min 0,0 UV-I 162 W/m 10,3 km/h (2 Bft)
11.07.2013 10:04 14,8 C 15,1 C 78 % 1022,4 hPa 0,0 l/m 0 min 0 min 0,0 UV-I 167 W/m 12,9 km/h (3 Bft)
11.07.2013 10:06 14,8 C 15,1 C 77 % 1022,4 hPa 0,0 l/m 0 min 0 min 0,0 UV-I 179 W/m 5,1 km/h (1 Bft)
11.07.2013 10:08 14,7 C 15,1 C 77 % 1022,4 hPa 0,0 l/m 0 min 0 min 0,0 UV-I 174 W/m 12,9 km/h (3 Bft)
11.07.2013 10:10 14,7 C 15,1 C 78 % 1022,5 hPa 0,0 l/m 0 min 0 min 0,0 UV-I 165 W/m 10,3 km/h (2 Bft)
11.07.2013 10:11 14,7 C 15,1 C 77 % 1022,5 hPa 0,0 l/m 0 min 0 min 0,0 UV-I 162 W/m 10,3 km/h (2 Bft)
11.07.2013 10:12 14,7 C 15,1 C 77 % 1022,5 hPa 0,0 l/m 0 min 0 min 0,0 UV-I 163 W/m 12,9 km/h (3 Bft)
11.07.2013 10:13 14,7 C 15,1 C 77 % 1022,5 hPa 0,0 l/m 0 min 0 min 0,0 UV-I 167 W/m 7,7 km/h (2 Bft)
11.07.2013 10:14 14,6 C 15,1 C 78 % 1022,5 hPa 0,0 l/m 0 min 0 min 0,0 UV-I 172 W/m 0,0 km/h (0 Bft)
11.07.2013 10:15 14,7 C 15,1 C 78 % 1022,5 hPa 0,0 l/m 0 min 0 min 0,0 UV-I 172 W/m 0,0 km/h (0 Bft)
11.07.2013 10:16 14,7 C 15,1 C 78 % 1022,5 hPa 0,0 l/m 0 min 0 min 0,0 UV-I 174 W/m 0,0 km/h (0 Bft)
11.07.2013 10:17 14,7 C 15,1 C 79 % 1022,6 hPa 0,0 l/m 0 min 0 min 0,0 UV-I 174 W/m 0,0 km/h (0 Bft)
11.07.2013 10:18 14,8 C 15,1 C 78 % 1022,6 hPa 0,0 l/m 0 min 0 min 0,0 UV-I 176 W/m 7,7 km/h (2 Bft)
11.07.2013 10:19 14,8 C 15,1 C 78 % 1022,6 hPa 0,0 l/m 0 min 0 min 0,0 UV-I 179 W/m 7,7 km/h (2 Bft)
11.07.2013 10:20 14,8 C 15,1 C 77 % 1022,5 hPa 0,0 l/m 0 min 0 min 0,0 UV-I 188 W/m 7,7 km/h (2 Bft)
11.07.2013 10:21 14,8 C 15,1 C 77 % 1022,6 hPa 0,0 l/m 0 min 0 min 0,0 UV-I 192 W/m 7,7 km/h (2 Bft)
11.07.2013 10:22 14,8 C 15,1 C 77 % 1022,5 hPa 0,0 l/m 0 min 0 min 0,0 UV-I 192 W/m 10,3 km/h (2 Bft)
11.07.2013 10:23 14,9 C 15,1 C 78 % 1022,6 hPa 0,0 l/m 0 min 0 min 0,0 UV-I 190 W/m 0,0 km/h (0 Bft)
11.07.2013 10:24 14,9 C 15,1 C 77 % 1022,6 hPa 0,0 l/m 0 min 0 min 0,0 UV-I 185 W/m 7,7 km/h (2 Bft)
11.07.2013 10:25 14,9 C 15,7 C 77 % 1022,6 hPa 0,0 l/m 0 min 0 min 0,0 UV-I 181 W/m 10,3 km/h (2 Bft)
11.07.2013 10:26 14,9 C 15,1 C 77 % 1022,6 hPa 0,0 l/m 0 min 0 min 0,0 UV-I 181 W/m 12,9 km/h (3 Bft)
11.07.2013 10:27 14,9 C 15,1 C 77 % 1022,6 hPa 0,0 l/m 0 min 0 min 0,0 UV-I 188 W/m 12,9 km/h (3 Bft)
11.07.2013 10:28 14,9 C 15,1 C 77 % 1022,6 hPa 0,0 l/m 0 min 0 min 0,0 UV-I 195 W/m 10,3 km/h (2 Bft)
11.07.2013 10:29 14,9 C 15,1 C 77 % 1022,6 hPa 0,0 l/m 0 min 0 min 0,0 UV-I 204 W/m 0,0 km/h (0 Bft)
11.07.2013 10:30 14,9 C 15,1 C 76 % 1022,6 hPa 0,0 l/m 0 min 0 min 0,0 UV-I 209 W/m 0,0 km/h (0 Bft)
11.07.2013 10:31 14,9 C 15,1 C 77 % 1022,6 hPa 0,0 l/m 0 min 0 min 0,0 UV-I 213 W/m 0,0 km/h (0 Bft)
11.07.2013 10:32 14,9 C 15,7 C 77 % 1022,7 hPa 0,0 l/m 0 min 0 min 0,5 UV-I 221 W/m 0,0 km/h (0 Bft)
11.07.2013 10:33 14,9 C 15,7 C 77 % 1022,6 hPa 0,0 l/m 0 min 0 min 0,5 UV-I 229 W/m 7,7 km/h (2 Bft)
11.07.2013 10:34 14,9 C 15,7 C 77 % 1022,6 hPa 0,0 l/m 0 min 0 min 0,5 UV-I 234 W/m 12,9 km/h (3 Bft)
11.07.2013 10:35 14,9 C 15,7 C 77 % 1022,6 hPa 0,0 l/m 0 min 0 min 0,6 UV-I 239 W/m 10,3 km/h (2 Bft)
11.07.2013 10:36 14,9 C 15,7 C 76 % 1022,6 hPa 0,0 l/m 0 min 0 min 0,6 UV-I 243 W/m 15,4 km/h (3 Bft)
11.07.2013 10:37 14,9 C 15,7 C 76 % 1022,6 hPa 0,0 l/m 0 min 0 min 0,6 UV-I 243 W/m 23,2 km/h (4 Bft)
11.07.2013 10:38 14,9 C 15,7 C 76 % 1022,6 hPa 0,0 l/m 0 min 0 min 0,6 UV-I 239 W/m 12,9 km/h (3 Bft)
11.07.2013 10:39 14,9 C 15,7 C 77 % 1022,6 hPa 0,0 l/m 0 min 0 min 0,6 UV-I 239 W/m 23,2 km/h (4 Bft)
11.07.2013 10:44 14,9 C 15,7 C 76 % 1022,5 hPa 0,0 l/m 0 min 0 min 0,7 UV-I 243 W/m 10,3 km/h (2 Bft)
11.07.2013 10:46 14,9 C 15,7 C 77 % 1022,6 hPa 0,0 l/m 0 min 0 min 0,7 UV-I 244 W/m 10,3 km/h (2 Bft)
11.07.2013 10:48 15,0 C 15,7 C 77 % 1022,5 hPa 0,0 l/m 0 min 0 min 0,7 UV-I 253 W/m 0,0 km/h (0 Bft)
11.07.2013 10:50 15,1 C 16,2 C 78 % 1022,6 hPa 0,0 l/m 0 min 0 min 0,7 UV-I 250 W/m 0,0 km/h (0 Bft)
11.07.2013 10:52 15,2 C 16,2 C 77 % 1022,6 hPa 0,0 l/m 0 min 0 min 0,8 UV-I 257 W/m 12,9 km/h (3 Bft)
11.07.2013 10:54 15,2 C 15,7 C 76 % 1022,7 hPa 0,0 l/m 0 min 0 min 0,8 UV-I 272 W/m 12,9 km/h (3 Bft)
11.07.2013 10:56 15,1 C 15,7 C 76 % 1022,7 hPa 0,0 l/m 0 min 0 min 1,0 UV-I 302 W/m 12,9 km/h (3 Bft)
11.07.2013 10:58 15,0 C 15,7 C 76 % 1022,6 hPa 0,0 l/m 0 min 0 min 1,1 UV-I 315 W/m 23,2 km/h (4 Bft)
11.07.2013 11:00 15,0 C 15,7 C 77 % 1022,6 hPa 0,0 l/m 0 min 0 min 1,2 UV-I 327 W/m 10,3 km/h (2 Bft)
11.07.2013 11:02 15,1 C 16,2 C 77 % 1022,7 hPa 0,0 l/m 0 min 0 min 1,3 UV-I 341 W/m 7,7 km/h (2 Bft)
11.07.2013 11:06 15,2 C 16,2 C 76 % 1022,7 hPa 0,0 l/m 0 min 0 min 1,4 UV-I 364 W/m 12,9 km/h (3 Bft)
11.07.2013 11:08 15,3 C 16,2 C 76 % 1022,6 hPa 0,0 l/m 0 min 0 min 1,5 UV-I 381 W/m 5,1 km/h (1 Bft)
11.07.2013 11:10 15,4 C 16,8 C 76 % 1022,6 hPa 0,0 l/m 0 min 0 min 1,5 UV-I 397 W/m 7,7 km/h (2 Bft)
11.07.2013 11:12 15,5 C 17,3 C 75 % 1022,6 hPa 0,0 l/m 0 min 0 min 1,5 UV-I 373 W/m 10,3 km/h (2 Bft)
11.07.2013 11:14 15,6 C 16,8 C 75 % 1022,6 hPa 0,0 l/m 0 min 0 min 1,4 UV-I 345 W/m 10,3 km/h (2 Bft)
11.07.2013 11:16 15,5 C 16,8 C 75 % 1022,6 hPa 0,0 l/m 0 min 0 min 1,4 UV-I 345 W/m 12,9 km/h (3 Bft)
11.07.2013 11:18 15,4 C 16,2 C 75 % 1022,6 hPa 0,0 l/m 0 min 0 min 1,3 UV-I 332 W/m 10,3 km/h (2 Bft)
11.07.2013 11:20 15,3 C 16,2 C 75 % 1022,6 hPa 0,0 l/m 0 min 0 min 1,3 UV-I 332 W/m 12,9 km/h (3 Bft)
11.07.2013 11:22 15,4 C 16,8 C 76 % 1022,7 hPa 0,0 l/m 0 min 0 min 1,3 UV-I 325 W/m 10,3 km/h (2 Bft)
11.07.2013 11:24 15,4 C 16,8 C 76 % 1022,6 hPa 0,0 l/m 0 min 0 min 1,2 UV-I 292 W/m 0,0 km/h (0 Bft)
11.07.2013 11:26 15,6 C 16,8 C 76 % 1022,6 hPa 0,0 l/m 0 min 0 min 0,9 UV-I 267 W/m 10,3 km/h (2 Bft)
11.07.2013 11:28 15,6 C 16,8 C 76 % 1022,7 hPa 0,0 l/m 0 min 0 min 0,9 UV-I 255 W/m 10,3 km/h (2 Bft)
11.07.2013 11:30 15,6 C 16,8 C 76 % 1022,7 hPa 0,0 l/m 0 min 0 min 0,9 UV-I 269 W/m 7,7 km/h (2 Bft)
11.07.2013 11:32 15,5 C 16,2 C 75 % 1022,7 hPa 0,0 l/m 0 min 0 min 1,2 UV-I 294 W/m 10,3 km/h (2 Bft)
11.07.2013 11:34 15,4 C 16,2 C 76 % 1022,7 hPa 0,0 l/m 0 min 0 min 1,3 UV-I 311 W/m 10,3 km/h (2 Bft)
11.07.2013 11:36 15,4 C 16,8 C 76 % 1022,7 hPa 0,0 l/m 0 min 0 min 1,3 UV-I 318 W/m 0,0 km/h (0 Bft)
11.07.2013 11:38 15,4 C 16,8 C 76 % 1022,7 hPa 0,0 l/m 0 min 0 min 1,3 UV-I 315 W/m 2,6 km/h (1 Bft)
11.07.2013 11:40 15,5 C 16,8 C 75 % 1022,7 hPa 0,0 l/m 0 min 0 min 1,3 UV-I 315 W/m 15,4 km/h (3 Bft)
11.07.2013 11:42 15,5 C 16,8 C 75 % 1022,7 hPa 0,0 l/m 0 min 0 min 1,3 UV-I 315 W/m 12,9 km/h (3 Bft)
11.07.2013 11:44 15,4 C 16,8 C 75 % 1022,6 hPa 0,0 l/m 0 min 0 min 1,3 UV-I 318 W/m 7,7 km/h (2 Bft)
11.07.2013 11:46 15,5 C 16,8 C 76 % 1022,7 hPa 0,0 l/m 0 min 0 min 1,3 UV-I 322 W/m 12,9 km/h (3 Bft)
11.07.2013 11:48 15,6 C 17,3 C 75 % 1022,7 hPa 0,0 l/m 0 min 0 min 1,3 UV-I 323 W/m 7,7 km/h (2 Bft)
11.07.2013 11:50 15,7 C 17,3 C 75 % 1022,7 hPa 0,0 l/m 0 min 0 min 1,4 UV-I 327 W/m 7,7 km/h (2 Bft)
11.07.2013 11:52 15,8 C 17,3 C 74 % 1022,7 hPa 0,0 l/m 0 min 0 min 1,4 UV-I 322 W/m 10,3 km/h (2 Bft)
11.07.2013 11:54 15,8 C 17,3 C 74 % 1022,7 hPa 0,0 l/m 0 min 0 min 1,4 UV-I 327 W/m 7,7 km/h (2 Bft)
11.07.2013 11:56 15,9 C 17,3 C 74 % 1022,8 hPa 0,0 l/m 0 min 0 min 1,5 UV-I 330 W/m 7,7 km/h (2 Bft)
11.07.2013 11:58 16,0 C 17,3 C 74 % 1022,7 hPa 0,0 l/m 0 min 0 min 1,5 UV-I 325 W/m 0,0 km/h (0 Bft)
11.07.2013 12:00 16,0 C 17,3 C 73 % 1022,7 hPa 0,0 l/m 0 min 0 min 1,5 UV-I 341 W/m 12,9 km/h (3 Bft)
11.07.2013 12:02 16,0 C 17,3 C 73 % 1022,7 hPa 0,0 l/m 0 min 0 min 1,6 UV-I 353 W/m 10,3 km/h (2 Bft)
11.07.2013 12:06 16,1 C 17,3 C 72 % 1022,7 hPa 0,0 l/m 0 min 0 min 1,5 UV-I 339 W/m 7,7 km/h (2 Bft)
11.07.2013 12:08 16,1 C 17,9 C 72 % 1022,6 hPa 0,0 l/m 0 min 0 min 1,5 UV-I 327 W/m 5,1 km/h (1 Bft)
11.07.2013 12:10 16,1 C 17,9 C 73 % 1022,6 hPa 0,0 l/m 0 min 0 min 1,4 UV-I 318 W/m 7,7 km/h (2 Bft)
11.07.2013 12:12 16,1 C 17,3 C 73 % 1022,6 hPa 0,0 l/m 0 min 0 min 1,4 UV-I 315 W/m 7,7 km/h (2 Bft)
11.07.2013 12:14 16,0 C 17,3 C 73 % 1022,6 hPa 0,0 l/m 0 min 0 min 1,4 UV-I 311 W/m 12,9 km/h (3 Bft)
11.07.2013 12:16 16,0 C 17,3 C 74 % 1022,6 hPa 0,0 l/m 0 min 0 min 1,4 UV-I 316 W/m 15,4 km/h (3 Bft)
11.07.2013 12:18 16,1 C 17,3 C 74 % 1022,6 hPa 0,0 l/m 0 min 0 min 1,4 UV-I 316 W/m 7,7 km/h (2 Bft)
11.07.2013 12:20 16,1 C 17,3 C 73 % 1022,6 hPa 0,0 l/m 0 min 0 min 1,4 UV-I 313 W/m 10,3 km/h (2 Bft)
11.07.2013 12:22 16,1 C 17,3 C 74 % 1022,6 hPa 0,0 l/m 0 min 0 min 1,4 UV-I 315 W/m 5,1 km/h (1 Bft)
11.07.2013 12:24 16,2 C 17,9 C 73 % 1022,6 hPa 0,0 l/m 0 min 0 min 1,5 UV-I 318 W/m 7,7 km/h (2 Bft)
11.07.2013 12:26 16,2 C 17,9 C 73 % 1022,6 hPa 0,0 l/m 0 min 0 min 1,6 UV-I 339 W/m 10,3 km/h (2 Bft)
11.07.2013 12:28 16,2 C 17,9 C 72 % 1022,6 hPa 0,0 l/m 0 min 0 min 1,7 UV-I 348 W/m 10,3 km/h (2 Bft)
11.07.2013 12:30 16,2 C 17,3 C 73 % 1022,7 hPa 0,0 l/m 0 min 0 min 1,7 UV-I 350 W/m 12,9 km/h (3 Bft)
11.07.2013 12:32 16,1 C 17,3 C 72 % 1022,7 hPa 0,0 l/m 0 min 0 min 1,6 UV-I 341 W/m 7,7 km/h (2 Bft)
11.07.2013 12:34 16,1 C 17,3 C 73 % 1022,7 hPa 0,0 l/m 0 min 0 min 1,5 UV-I 330 W/m 0,0 km/h (0 Bft)
11.07.2013 12:36 16,2 C 17,3 C 73 % 1022,7 hPa 0,0 l/m 0 min 0 min 1,3 UV-I 272 W/m 7,7 km/h (2 Bft)
11.07.2013 12:38 16,2 C 17,3 C 72 % 1022,7 hPa 0,0 l/m 0 min 0 min 1,4 UV-I 294 W/m 10,3 km/h (2 Bft)
11.07.2013 12:40 16,2 C 17,3 C 72 % 1022,7 hPa 0,0 l/m 0 min 0 min 1,5 UV-I 329 W/m 12,9 km/h (3 Bft)
11.07.2013 12:42 16,1 C 17,3 C 73 % 1022,7 hPa 0,0 l/m 0 min 0 min 1,6 UV-I 338 W/m 0,0 km/h (0 Bft)
11.07.2013 12:44 16,2 C 17,9 C 73 % 1022,7 hPa 0,0 l/m 0 min 0 min 1,6 UV-I 343 W/m 10,3 km/h (2 Bft)
11.07.2013 12:46 16,3 C 17,9 C 73 % 1022,7 hPa 0,0 l/m 0 min 0 min 1,6 UV-I 339 W/m 12,9 km/h (3 Bft)
11.07.2013 12:48 16,3 C 17,9 C 72 % 1022,7 hPa 0,0 l/m 0 min 0 min 1,6 UV-I 332 W/m 18,0 km/h (3 Bft)
11.07.2013 12:50 16,3 C 17,9 C 72 % 1022,7 hPa 0,0 l/m 0 min 0 min 1,6 UV-I 336 W/m 10,3 km/h (2 Bft)
11.07.2013 12:52 16,3 C 17,9 C 72 % 1022,7 hPa 0,0 l/m 0 min 0 min 1,6 UV-I 325 W/m 18,0 km/h (3 Bft)
11.07.2013 12:54 16,3 C 17,3 C 72 % 1022,7 hPa 0,0 l/m 0 min 0 min 1,7 UV-I 341 W/m 12,9 km/h (3 Bft)
11.07.2013 12:56 16,2 C 17,3 C 72 % 1022,7 hPa 0,0 l/m 0 min 0 min 1,7 UV-I 343 W/m 7,7 km/h (2 Bft)
11.07.2013 12:58 16,1 C 17,3 C 71 % 1022,7 hPa 0,0 l/m 0 min 0 min 1,8 UV-I 371 W/m 18,0 km/h (3 Bft)
11.07.2013 13:00 16,2 C 17,9 C 72 % 1022,7 hPa 0,0 l/m 0 min 0 min 1,8 UV-I 378 W/m 5,1 km/h (1 Bft)
11.07.2013 13:02 16,3 C 17,9 C 73 % 1022,6 hPa 0,0 l/m 0 min 0 min 1,8 UV-I 381 W/m 2,6 km/h (1 Bft)
11.07.2013 13:06 16,8 C 18,4 C 71 % 1022,6 hPa 0,0 l/m 0 min 0 min 1,6 UV-I 352 W/m 7,7 km/h (2 Bft)
11.07.2013 13:08 16,7 C 18,4 C 71 % 1022,6 hPa 0,0 l/m 0 min 0 min 1,4 UV-I 323 W/m 0,0 km/h (0 Bft)
11.07.2013 13:10 16,6 C 17,9 C 72 % 1022,6 hPa 0,0 l/m 0 min 0 min 1,3 UV-I 299 W/m 0,0 km/h (0 Bft)
11.07.2013 13:12 16,6 C 17,9 C 73 % 1022,5 hPa 0,0 l/m 0 min 0 min 1,5 UV-I 315 W/m 0,0 km/h (0 Bft)
11.07.2013 13:14 16,6 C 17,9 C 72 % 1022,5 hPa 0,0 l/m 0 min 0 min 1,7 UV-I 345 W/m 12,9 km/h (3 Bft)
11.07.2013 13:15 16,6 C 17,9 C 71 % 1022,5 hPa 0,0 l/m 0 min 0 min 1,8 UV-I 357 W/m 10,3 km/h (2 Bft)
11.07.2013 13:16 16,6 C 17,9 C 72 % 1022,5 hPa 0,0 l/m 0 min 0 min 1,9 UV-I 381 W/m 12,9 km/h (3 Bft)
11.07.2013 13:17 16,6 C 17,9 C 72 % 1022,5 hPa 0,0 l/m 0 min 0 min 2,0 UV-I 392 W/m 7,7 km/h (2 Bft)
11.07.2013 13:18 16,6 C 18,4 C 73 % 1022,5 hPa 0,0 l/m 0 min 0 min 2,1 UV-I 397 W/m 7,7 km/h (2 Bft)
11.07.2013 13:20 16,8 C 19,0 C 72 % 1022,5 hPa 0,0 l/m 0 min 0 min 2,1 UV-I 413 W/m 5,1 km/h (1 Bft)
11.07.2013 13:22 17,1 C 19,0 C 73 % 1022,4 hPa 0,0 l/m 0 min 0 min 2,2 UV-I 425 W/m 2,6 km/h (1 Bft)
11.07.2013 13:23 17,2 C 19,6 C 72 % 1022,5 hPa 0,0 l/m 0 min 0 min 2,2 UV-I 425 W/m 5,1 km/h (1 Bft)
11.07.2013 13:24 17,2 C 19,0 C 71 % 1022,5 hPa 0,0 l/m 0 min 0 min 2,2 UV-I 425 W/m 7,7 km/h (2 Bft)
11.07.2013 13:26 17,1 C 19,0 C 71 % 1022,5 hPa 0,0 l/m 0 min 0 min 2,2 UV-I 424 W/m 2,6 km/h (1 Bft)
11.07.2013 13:28 17,1 C 19,0 C 71 % 1022,4 hPa 0,0 l/m 0 min 0 min 2,3 UV-I 429 W/m 7,7 km/h (2 Bft)
11.07.2013 13:29 17,0 C 19,0 C 70 % 1022,5 hPa 0,0 l/m 0 min 0 min 2,3 UV-I 438 W/m 7,7 km/h (2 Bft)
11.07.2013 13:30 16,9 C 19,0 C 71 % 1022,5 hPa 0,0 l/m 0 min 0 min 2,3 UV-I 441 W/m 5,1 km/h (1 Bft)
11.07.2013 13:32 17,2 C 19,0 C 72 % 1022,5 hPa 0,0 l/m 0 min 0 min 2,2 UV-I 438 W/m 5,1 km/h (1 Bft)
11.07.2013 13:33 17,2 C 19,0 C 71 % 1022,4 hPa 0,0 l/m 0 min 0 min 2,2 UV-I 441 W/m 18,0 km/h (3 Bft)
11.07.2013 13:36 17,2 C 19,0 C 71 % 1022,5 hPa 0,0 l/m 0 min 0 min 2,4 UV-I 464 W/m 15,4 km/h (3 Bft)
11.07.2013 13:38 17,1 C 19,0 C 70 % 1022,5 hPa 0,0 l/m 0 min 0 min 2,4 UV-I 469 W/m 7,7 km/h (2 Bft)
11.07.2013 13:40 17,1 C 19,6 C 70 % 1022,4 hPa 0,0 l/m 0 min 0 min 2,3 UV-I 452 W/m 0,0 km/h (0 Bft)
11.07.2013 13:42 17,2 C 19,6 C 71 % 1022,5 hPa 0,0 l/m 0 min 0 min 2,2 UV-I 450 W/m 10,3 km/h (2 Bft)
11.07.2013 13:44 17,2 C 19,0 C 71 % 1022,5 hPa 0,0 l/m 0 min 0 min 2,2 UV-I 408 W/m 15,4 km/h (3 Bft)
11.07.2013 13:46 17,2 C 19,0 C 71 % 1022,5 hPa 0,0 l/m 0 min 0 min 2,2 UV-I 404 W/m 15,4 km/h (3 Bft)
11.07.2013 13:48 17,2 C 18,4 C 70 % 1022,5 hPa 0,0 l/m 0 min 0 min 2,2 UV-I 408 W/m 15,4 km/h (3 Bft)
11.07.2013 13:50 17,0 C 18,4 C 70 % 1022,5 hPa 0,0 l/m 0 min 0 min 2,2 UV-I 411 W/m 12,9 km/h (3 Bft)
11.07.2013 13:52 16,9 C 18,4 C 70 % 1022,5 hPa 0,0 l/m 0 min 0 min 2,1 UV-I 404 W/m 0,0 km/h (0 Bft)
11.07.2013 13:54 16,8 C 19,0 C 71 % 1022,5 hPa 0,0 l/m 0 min 0 min 2,1 UV-I 401 W/m 7,7 km/h (2 Bft)
11.07.2013 13:56 16,8 C 19,0 C 71 % 1022,5 hPa 0,0 l/m 0 min 0 min 2,2 UV-I 399 W/m 2,6 km/h (1 Bft)
11.07.2013 13:58 17,1 C 19,0 C 72 % 1022,5 hPa 0,0 l/m 0 min 0 min 2,3 UV-I 427 W/m 7,7 km/h (2 Bft)
11.07.2013 14:00 17,2 C 19,0 C 69 % 1022,5 hPa 0,0 l/m 0 min 0 min 2,4 UV-I 452 W/m 10,3 km/h (2 Bft)
11.07.2013 14:02 17,2 C 19,6 C 70 % 1022,5 hPa 0,0 l/m 2 min 0 min 2,6 UV-I 504 W/m 10,3 km/h (2 Bft)
11.07.2013 14:06 17,4 C 20,1 C 69 % 1022,5 hPa 0,0 l/m 0 min 0 min 2,4 UV-I 466 W/m 15,4 km/h (3 Bft)
11.07.2013 14:08 17,3 C 19,6 C 69 % 1022,5 hPa 0,0 l/m 2 min 0 min 2,4 UV-I 497 W/m 10,3 km/h (2 Bft)
11.07.2013 14:10 17,5 C 20,1 C 70 % 1022,4 hPa 0,0 l/m 2 min 0 min 2,4 UV-I 473 W/m 0,0 km/h (0 Bft)
11.07.2013 14:12 17,5 C 19,6 C 68 % 1022,5 hPa 0,0 l/m 2 min 0 min 2,3 UV-I 517 W/m 18,0 km/h (3 Bft)
11.07.2013 14:14 17,4 C 19,0 C 68 % 1022,4 hPa 0,0 l/m 0 min 0 min 2,2 UV-I 418 W/m 12,9 km/h (3 Bft)
11.07.2013 14:16 17,6 C 19,0 C 69 % 1022,4 hPa 0,0 l/m 0 min 0 min 2,1 UV-I 390 W/m 2,6 km/h (1 Bft)
11.07.2013 14:17 17,7 C 19,6 C 69 % 1022,4 hPa 0,0 l/m 0 min 0 min 2,0 UV-I 381 W/m 0,0 km/h (0 Bft)
11.07.2013 14:18 17,8 C 19,6 C 70 % 1022,4 hPa 0,0 l/m 0 min 0 min 2,0 UV-I 376 W/m 0,0 km/h (0 Bft)
11.07.2013 14:22 18,0 C 19,6 C 68 % 1022,4 hPa 0,0 l/m 0 min 0 min 1,9 UV-I 362 W/m 0,0 km/h (0 Bft)
11.07.2013 14:24 17,8 C 19,6 C 68 % 1022,2 hPa 0,0 l/m 0 min 0 min 1,9 UV-I 355 W/m 2,6 km/h (1 Bft)
11.07.2013 14:26 17,7 C 19,0 C 68 % 1022,3 hPa 0,0 l/m 0 min 0 min 1,8 UV-I 320 W/m 2,6 km/h (1 Bft)
11.07.2013 14:28 17,7 C 19,0 C 68 % 1022,3 hPa 0,0 l/m 0 min 0 min 1,6 UV-I 316 W/m 10,3 km/h (2 Bft)
11.07.2013 14:30 17,6 C 18,4 C 69 % 1022,2 hPa 0,0 l/m 0 min 0 min 1,7 UV-I 327 W/m 12,9 km/h (3 Bft)
11.07.2013 14:32 17,6 C 18,4 C 70 % 1022,3 hPa 0,0 l/m 0 min 0 min 1,8 UV-I 350 W/m 10,3 km/h (2 Bft)
11.07.2013 14:34 17,4 C 18,4 C 70 % 1022,2 hPa 0,0 l/m 0 min 0 min 2,0 UV-I 374 W/m 15,4 km/h (3 Bft)
11.07.2013 14:36 17,4 C 19,0 C 71 % 1022,2 hPa 0,0 l/m 0 min 0 min 2,1 UV-I 418 W/m 10,3 km/h (2 Bft)
11.07.2013 14:38 17,5 C 19,0 C 70 % 1022,2 hPa 0,0 l/m 0 min 0 min 2,1 UV-I 461 W/m 2,6 km/h (1 Bft)
11.07.2013 14:40 17,6 C 19,6 C 70 % 1022,3 hPa 0,0 l/m 0 min 0 min 2,1 UV-I 427 W/m 12,9 km/h (3 Bft)
11.07.2013 14:42 17,7 C 19,6 C 71 % 1022,3 hPa 0,0 l/m 0 min 0 min 1,9 UV-I 380 W/m 12,9 km/h (3 Bft)
11.07.2013 14:44 17,7 C 19,0 C 70 % 1022,4 hPa 0,0 l/m 0 min 0 min 1,7 UV-I 360 W/m 10,3 km/h (2 Bft)
11.07.2013 14:46 17,8 C 19,0 C 70 % 1022,4 hPa 0,0 l/m 0 min 0 min 1,7 UV-I 352 W/m 7,7 km/h (2 Bft)
11.07.2013 14:48 17,7 C 19,0 C 70 % 1022,3 hPa 0,0 l/m 0 min 0 min 1,7 UV-I 353 W/m 7,7 km/h (2 Bft)
11.07.2013 14:50 17,6 C 19,0 C 70 % 1022,3 hPa 0,0 l/m 0 min 0 min 1,7 UV-I 348 W/m 12,9 km/h (3 Bft)
11.07.2013 14:52 17,6 C 19,0 C 70 % 1022,3 hPa 0,0 l/m 0 min 0 min 1,7 UV-I 350 W/m 7,7 km/h (2 Bft)
11.07.2013 14:54 17,8 C 19,6 C 71 % 1022,3 hPa 0,0 l/m 0 min 0 min 1,8 UV-I 359 W/m 0,0 km/h (0 Bft)
11.07.2013 14:56 17,7 C 19,0 C 68 % 1022,2 hPa 0,0 l/m 0 min 0 min 1,8 UV-I 360 W/m 10,3 km/h (2 Bft)
11.07.2013 14:58 17,7 C 19,0 C 69 % 1022,3 hPa 0,0 l/m 0 min 0 min 1,7 UV-I 353 W/m 12,9 km/h (3 Bft)
11.07.2013 15:00 17,7 C 19,0 C 70 % 1022,3 hPa 0,0 l/m 0 min 0 min 1,6 UV-I 346 W/m 15,4 km/h (3 Bft)
11.07.2013 15:02 17,7 C 19,0 C 69 % 1022,3 hPa 0,0 l/m 0 min 0 min 1,6 UV-I 346 W/m 12,9 km/h (3 Bft)
11.07.2013 15:06 17,4 C 18,4 C 69 % 1022,3 hPa 0,0 l/m 0 min 0 min 1,5 UV-I 327 W/m 10,3 km/h (2 Bft)
11.07.2013 15:08 17,4 C 18,4 C 70 % 1022,2 hPa 0,0 l/m 0 min 0 min 1,4 UV-I 315 W/m 7,7 km/h (2 Bft)
11.07.2013 15:10 17,4 C 18,4 C 69 % 1022,3 hPa 0,0 l/m 0 min 0 min 1,3 UV-I 308 W/m 12,9 km/h (3 Bft)
11.07.2013 15:12 17,4 C 18,4 C 70 % 1022,2 hPa 0,0 l/m 0 min 0 min 1,3 UV-I 301 W/m 12,9 km/h (3 Bft)
11.07.2013 15:14 17,6 C 18,4 C 70 % 1022,2 hPa 0,0 l/m 0 min 0 min 1,1 UV-I 274 W/m 10,3 km/h (2 Bft)
11.07.2013 15:16 17,4 C 17,9 C 69 % 1022,2 hPa 0,0 l/m 0 min 0 min 1,1 UV-I 264 W/m 10,3 km/h (2 Bft)
11.07.2013 15:18 17,4 C 17,9 C 69 % 1022,2 hPa 0,0 l/m 0 min 0 min 1,0 UV-I 257 W/m 10,3 km/h (2 Bft)
11.07.2013 15:20 17,3 C 17,9 C 69 % 1022,1 hPa 0,0 l/m 0 min 0 min 1,0 UV-I 258 W/m 10,3 km/h (2 Bft)
11.07.2013 15:22 17,3 C 17,9 C 70 % 1022,2 hPa 0,0 l/m 0 min 0 min 1,1 UV-I 264 W/m 0,0 km/h (0 Bft)
11.07.2013 15:24 17,4 C 18,4 C 70 % 1022,2 hPa 0,0 l/m 0 min 0 min 1,1 UV-I 272 W/m 7,7 km/h (2 Bft)
11.07.2013 15:26 17,4 C 18,4 C 70 % 1022,1 hPa 0,0 l/m 0 min 0 min 1,2 UV-I 276 W/m 10,3 km/h (2 Bft)
11.07.2013 15:28 17,4 C 18,4 C 70 % 1022,1 hPa 0,0 l/m 0 min 0 min 1,2 UV-I 279 W/m 12,9 km/h (3 Bft)
11.07.2013 15:30 17,4 C 18,4 C 69 % 1022,1 hPa 0,0 l/m 0 min 0 min 1,2 UV-I 285 W/m 10,3 km/h (2 Bft)
11.07.2013 15:32 17,4 C 18,4 C 69 % 1022,1 hPa 0,0 l/m 0 min 0 min 1,2 UV-I 287 W/m 10,3 km/h (2 Bft)
11.07.2013 15:34 17,7 C 19,0 C 69 % 1022,1 hPa 0,0 l/m 0 min 0 min 1,2 UV-I 287 W/m 12,9 km/h (3 Bft)
11.07.2013 15:36 17,9 C 19,0 C 70 % 1022,0 hPa 0,0 l/m 0 min 0 min 1,2 UV-I 287 W/m 7,7 km/h (2 Bft)
11.07.2013 15:38 18,1 C 19,0 C 69 % 1022,1 hPa 0,0 l/m 0 min 0 min 1,2 UV-I 288 W/m 0,0 km/h (0 Bft)
11.07.2013 15:40 18,0 C 19,0 C 67 % 1022,1 hPa 0,0 l/m 0 min 0 min 1,2 UV-I 290 W/m 0,0 km/h (0 Bft)
11.07.2013 15:42 17,8 C 19,0 C 67 % 1022,1 hPa 0,0 l/m 0 min 0 min 1,2 UV-I 292 W/m 7,7 km/h (2 Bft)
11.07.2013 15:44 17,8 C 19,0 C 67 % 1022,1 hPa 0,0 l/m 0 min 0 min 1,2 UV-I 295 W/m 0,0 km/h (0 Bft)
11.07.2013 15:46 17,8 C 19,0 C 70 % 1022,0 hPa 0,0 l/m 0 min 0 min 1,3 UV-I 308 W/m 0,0 km/h (0 Bft)
11.07.2013 15:48 17,9 C 19,0 C 68 % 1022,0 hPa 0,0 l/m 0 min 0 min 1,4 UV-I 329 W/m 0,0 km/h (0 Bft)
11.07.2013 15:50 18,1 C 19,0 C 68 % 1022,1 hPa 0,0 l/m 0 min 0 min 1,4 UV-I 336 W/m 5,1 km/h (1 Bft)
11.07.2013 15:52 18,3 C 19,6 C 68 % 1022,0 hPa 0,0 l/m 0 min 0 min 1,5 UV-I 345 W/m 0,0 km/h (0 Bft)
11.07.2013 15:54 18,4 C 20,1 C 67 % 1022,0 hPa 0,0 l/m 0 min 0 min 1,6 UV-I 359 W/m 0,0 km/h (0 Bft)
11.07.2013 15:56 18,6 C 20,1 C 67 % 1022,0 hPa 0,0 l/m 0 min 0 min 1,9 UV-I 373 W/m 5,1 km/h (1 Bft)
11.07.2013 15:58 18,6 C 20,1 C 66 % 1022,0 hPa 0,0 l/m 0 min 0 min 1,7 UV-I 383 W/m 10,3 km/h (2 Bft)
11.07.2013 16:00 18,5 C 20,1 C 66 % 1022,0 hPa 0,0 l/m 0 min 0 min 1,6 UV-I 350 W/m 7,7 km/h (2 Bft)
11.07.2013 16:02 18,5 C 20,1 C 65 % 1022,0 hPa 0,0 l/m 0 min 0 min 1,6 UV-I 353 W/m 7,7 km/h (2 Bft)
11.07.2013 16:06 18,1 C 19,6 C 65 % 1022,0 hPa 0,0 l/m 0 min 0 min 1,3 UV-I 355 W/m 12,9 km/h (3 Bft)
11.07.2013 16:08 17,9 C 19,6 C 66 % 1022,0 hPa 0,0 l/m 0 min 0 min 1,3 UV-I 343 W/m 7,7 km/h (2 Bft)
11.07.2013 16:10 18,1 C 19,6 C 67 % 1022,0 hPa 0,0 l/m 0 min 0 min 1,3 UV-I 332 W/m 0,0 km/h (0 Bft)
11.07.2013 16:12 18,2 C 19,6 C 65 % 1022,0 hPa 0,0 l/m 0 min 0 min 1,1 UV-I 306 W/m 7,7 km/h (2 Bft)
11.07.2013 16:14 18,0 C 19,6 C 65 % 1021,9 hPa 0,0 l/m 0 min 0 min 1,0 UV-I 290 W/m 0,0 km/h (0 Bft)
11.07.2013 16:16 18,0 C 19,6 C 68 % 1022,0 hPa 0,0 l/m 0 min 0 min 1,0 UV-I 278 W/m 0,0 km/h (0 Bft)
11.07.2013 16:18 18,3 C 19,6 C 69 % 1022,0 hPa 0,0 l/m 0 min 0 min 0,9 UV-I 269 W/m 0,0 km/h (0 Bft)
11.07.2013 16:20 18,4 C 19,6 C 67 % 1022,0 hPa 0,0 l/m 0 min 0 min 0,9 UV-I 264 W/m 0,0 km/h (0 Bft)
11.07.2013 16:22 18,6 C 19,6 C 67 % 1022,0 hPa 0,0 l/m 0 min 0 min 0,9 UV-I 262 W/m 2,6 km/h (1 Bft)
11.07.2013 16:24 18,6 C 19,6 C 67 % 1022,1 hPa 0,0 l/m 0 min 0 min 0,9 UV-I 265 W/m 7,7 km/h (2 Bft)
11.07.2013 16:26 18,4 C 19,0 C 66 % 1022,0 hPa 0,0 l/m 0 min 0 min 0,9 UV-I 265 W/m 12,9 km/h (3 Bft)
11.07.2013 16:28 18,2 C 19,0 C 66 % 1022,0 hPa 0,0 l/m 0 min 0 min 0,9 UV-I 262 W/m 7,7 km/h (2 Bft)
11.07.2013 16:30 17,9 C 18,4 C 67 % 1022,1 hPa 0,0 l/m 0 min 0 min 0,8 UV-I 253 W/m 7,7 km/h (2 Bft)
11.07.2013 16:32 17,9 C 18,4 C 67 % 1022,0 hPa 0,0 l/m 0 min 0 min 0,7 UV-I 243 W/m 0,0 km/h (0 Bft)
11.07.2013 16:34 17,9 C 18,4 C 68 % 1022,1 hPa 0,0 l/m 0 min 0 min 0,7 UV-I 232 W/m 10,3 km/h (2 Bft)
11.07.2013 16:36 17,9 C 18,4 C 67 % 1022,1 hPa 0,0 l/m 0 min 0 min 0,6 UV-I 229 W/m 7,7 km/h (2 Bft)
11.07.2013 16:38 17,9 C 18,4 C 67 % 1022,1 hPa 0,0 l/m 0 min 0 min 0,6 UV-I 225 W/m 7,7 km/h (2 Bft)
11.07.2013 16:40 17,9 C 18,4 C 68 % 1022,1 hPa 0,0 l/m 0 min 0 min 0,6 UV-I 220 W/m 7,7 km/h (2 Bft)
11.07.2013 16:42 17,9 C 18,4 C 68 % 1022,1 hPa 0,0 l/m 0 min 0 min 0,6 UV-I 220 W/m 10,3 km/h (2 Bft)
11.07.2013 16:44 17,9 C 18,4 C 67 % 1022,0 hPa 0,0 l/m 0 min 0 min 0,6 UV-I 227 W/m 7,7 km/h (2 Bft)
11.07.2013 16:46 17,9 C 18,4 C 67 % 1022,1 hPa 0,0 l/m 0 min 0 min 0,7 UV-I 236 W/m 10,3 km/h (2 Bft)
11.07.2013 16:48 17,9 C 18,4 C 68 % 1022,0 hPa 0,0 l/m 0 min 0 min 0,7 UV-I 237 W/m 0,0 km/h (0 Bft)
11.07.2013 16:50 18,0 C 18,4 C 68 % 1022,0 hPa 0,0 l/m 0 min 0 min 0,7 UV-I 239 W/m 0,0 km/h (0 Bft)
11.07.2013 16:52 18,1 C 18,4 C 67 % 1022,0 hPa 0,0 l/m 0 min 0 min 0,7 UV-I 237 W/m 12,9 km/h (3 Bft)
11.07.2013 16:54 17,9 C 18,4 C 67 % 1021,9 hPa 0,0 l/m 0 min 0 min 0,7 UV-I 236 W/m 2,6 km/h (1 Bft)
11.07.2013 16:56 18,0 C 18,4 C 67 % 1022,0 hPa 0,0 l/m 0 min 0 min 0,7 UV-I 236 W/m 2,6 km/h (1 Bft)
11.07.2013 16:58 18,0 C 18,4 C 67 % 1022,0 hPa 0,0 l/m 0 min 0 min 0,7 UV-I 241 W/m 10,3 km/h (2 Bft)
11.07.2013 17:00 18,1 C 19,0 C 69 % 1022,0 hPa 0,0 l/m 0 min 0 min 0,7 UV-I 246 W/m 0,0 km/h (0 Bft)
11.07.2013 17:02 18,2 C 19,0 C 67 % 1022,0 hPa 0,0 l/m 0 min 0 min 0,7 UV-I 248 W/m 2,6 km/h (1 Bft)
11.07.2013 17:06 18,2 C 19,0 C 67 % 1022,0 hPa 0,0 l/m 0 min 0 min 0,8 UV-I 272 W/m 7,7 km/h (2 Bft)
11.07.2013 17:08 18,1 C 19,0 C 66 % 1022,0 hPa 0,0 l/m 0 min 0 min 0,9 UV-I 281 W/m 10,3 km/h (2 Bft)
11.07.2013 17:10 18,2 C 19,0 C 67 % 1022,0 hPa 0,0 l/m 0 min 0 min 0,9 UV-I 287 W/m 7,7 km/h (2 Bft)
11.07.2013 17:12 18,1 C 19,0 C 66 % 1022,0 hPa 0,0 l/m 0 min 0 min 1,0 UV-I 287 W/m 7,7 km/h (2 Bft)
11.07.2013 17:14 18,2 C 19,0 C 67 % 1021,9 hPa 0,0 l/m 0 min 0 min 1,1 UV-I 315 W/m 0,0 km/h (0 Bft)
11.07.2013 17:16 18,3 C 19,0 C 66 % 1021,9 hPa 0,0 l/m 0 min 0 min 1,0 UV-I 276 W/m 7,7 km/h (2 Bft)
11.07.2013 17:18 18,3 C 19,0 C 66 % 1021,8 hPa 0,0 l/m 0 min 0 min 1,0 UV-I 258 W/m 2,6 km/h (1 Bft)
11.07.2013 17:20 18,3 C 19,0 C 67 % 1021,8 hPa 0,0 l/m 0 min 0 min 1,0 UV-I 244 W/m 0,0 km/h (0 Bft)
11.07.2013 17:22 18,4 C 19,0 C 66 % 1021,8 hPa 0,0 l/m 0 min 0 min 0,9 UV-I 241 W/m 0,0 km/h (0 Bft)
11.07.2013 17:24 18,4 C 19,0 C 65 % 1021,9 hPa 0,0 l/m 0 min 0 min 0,9 UV-I 244 W/m 2,6 km/h (1 Bft)
11.07.2013 17:26 18,4 C 19,0 C 65 % 1021,9 hPa 0,0 l/m 0 min 0 min 0,9 UV-I 255 W/m 5,1 km/h (1 Bft)
11.07.2013 17:28 18,4 C 19,0 C 64 % 1021,9 hPa 0,0 l/m 0 min 0 min 0,9 UV-I 281 W/m 5,1 km/h (1 Bft)
11.07.2013 17:30 18,3 C 19,0 C 65 % 1021,9 hPa 0,0 l/m 0 min 0 min 1,0 UV-I 308 W/m 10,3 km/h (2 Bft)
11.07.2013 17:32 18,3 C 19,0 C 65 % 1021,9 hPa 0,0 l/m 0 min 0 min 0,9 UV-I 308 W/m 12,9 km/h (3 Bft)
11.07.2013 17:34 18,3 C 19,0 C 64 % 1021,9 hPa 0,0 l/m 0 min 0 min 0,9 UV-I 299 W/m 10,3 km/h (2 Bft)
11.07.2013 17:36 18,2 C 19,0 C 64 % 1021,9 hPa 0,0 l/m 0 min 0 min 0,9 UV-I 299 W/m 7,7 km/h (2 Bft)
11.07.2013 17:38 18,2 C 19,0 C 65 % 1021,9 hPa 0,0 l/m 2 min 0 min 1,4 UV-I 336 W/m 7,7 km/h (2 Bft)
11.07.2013 17:40 18,3 C 19,0 C 65 % 1021,8 hPa 0,0 l/m 2 min 0 min 1,1 UV-I 352 W/m 10,3 km/h (2 Bft)
11.07.2013 17:42 18,3 C 19,0 C 65 % 1021,8 hPa 0,0 l/m 2 min 0 min 0,9 UV-I 605 W/m 10,3 km/h (2 Bft)
11.07.2013 17:44 18,5 C 19,0 C 65 % 1021,9 hPa 0,0 l/m 2 min 0 min 1,0 UV-I 450 W/m 10,3 km/h (2 Bft)
11.07.2013 17:46 18,6 C 19,6 C 66 % 1021,8 hPa 0,0 l/m 0 min 0 min 0,8 UV-I 246 W/m 0,0 km/h (0 Bft)
11.07.2013 17:48 18,7 C 19,0 C 65 % 1021,8 hPa 0,0 l/m 0 min 0 min 0,8 UV-I 220 W/m 2,6 km/h (1 Bft)
11.07.2013 17:50 18,8 C 19,0 C 65 % 1021,9 hPa 0,0 l/m 0 min 0 min 0,7 UV-I 193 W/m 0,0 km/h (0 Bft)
11.07.2013 17:52 18,7 C 19,0 C 64 % 1021,8 hPa 0,0 l/m 0 min 0 min 0,7 UV-I 185 W/m 0,0 km/h (0 Bft)
11.07.2013 17:54 18,6 C 19,0 C 64 % 1021,8 hPa 0,0 l/m 0 min 0 min 0,6 UV-I 185 W/m 10,3 km/h (2 Bft)
11.07.2013 17:56 18,5 C 18,4 C 64 % 1021,8 hPa 0,0 l/m 0 min 0 min 0,6 UV-I 197 W/m 2,6 km/h (1 Bft)
11.07.2013 17:58 18,4 C 18,4 C 64 % 1021,7 hPa 0,0 l/m 0 min 0 min 0,6 UV-I 209 W/m 0,0 km/h (0 Bft)
11.07.2013 18:00 18,4 C 18,4 C 66 % 1021,7 hPa 0,0 l/m 0 min 0 min 0,6 UV-I 230 W/m 0,0 km/h (0 Bft)
11.07.2013 18:02 18,5 C 19,0 C 66 % 1021,7 hPa 0,0 l/m 0 min 0 min 0,6 UV-I 267 W/m 10,3 km/h (2 Bft)
11.07.2013 18:06 18,7 C 19,6 C 64 % 1021,8 hPa 0,0 l/m 2 min 0 min 0,7 UV-I 320 W/m 7,7 km/h (2 Bft)
11.07.2013 18:08 18,8 C 19,6 C 65 % 1021,8 hPa 0,0 l/m 2 min 0 min 0,7 UV-I 322 W/m 5,1 km/h (1 Bft)
11.07.2013 18:10 19,0 C 20,1 C 65 % 1021,7 hPa 0,0 l/m 2 min 0 min 0,7 UV-I 464 W/m 10,3 km/h (2 Bft)
11.07.2013 18:12 19,2 C 20,1 C 64 % 1021,7 hPa 0,0 l/m 2 min 0 min 0,9 UV-I 425 W/m 10,3 km/h (2 Bft)
11.07.2013 18:14 19,3 C 20,1 C 64 % 1021,7 hPa 0,0 l/m 2 min 0 min 0,7 UV-I 485 W/m 10,3 km/h (2 Bft)
11.07.2013 18:16 19,4 C 20,1 C 64 % 1021,7 hPa 0,0 l/m 0 min 0 min 0,5 UV-I 257 W/m 10,3 km/h (2 Bft)
11.07.2013 18:18 19,3 C 19,6 C 62 % 1021,7 hPa 0,0 l/m 0 min 0 min 0,5 UV-I 248 W/m 7,7 km/h (2 Bft)
11.07.2013 18:20 19,0 C 19,6 C 63 % 1021,6 hPa 0,0 l/m 0 min 0 min 0,0 UV-I 186 W/m 7,7 km/h (2 Bft)
11.07.2013 18:22 19,0 C 19,6 C 65 % 1021,6 hPa 0,0 l/m 0 min 0 min 0,0 UV-I 163 W/m 7,7 km/h (2 Bft)
11.07.2013 18:24 18,9 C 19,0 C 64 % 1021,7 hPa 0,0 l/m 0 min 0 min 0,0 UV-I 148 W/m 2,6 km/h (1 Bft)
11.07.2013 18:26 18,8 C 19,0 C 63 % 1021,6 hPa 0,0 l/m 0 min 0 min 0,0 UV-I 128 W/m 0,0 km/h (0 Bft)
11.07.2013 18:28 18,6 C 18,4 C 64 % 1021,6 hPa 0,0 l/m 0 min 0 min 0,0 UV-I 125 W/m 2,6 km/h (1 Bft)
11.07.2013 18:30 18,6 C 18,4 C 64 % 1021,6 hPa 0,0 l/m 0 min 0 min 0,0 UV-I 121 W/m 7,7 km/h (2 Bft)
11.07.2013 18:32 18,4 C 18,4 C 65 % 1021,6 hPa 0,0 l/m 0 min 0 min 0,0 UV-I 162 W/m 0,0 km/h (0 Bft)
11.07.2013 18:34 18,4 C 18,4 C 64 % 1021,6 hPa 0,0 l/m 0 min 0 min 0,0 UV-I 246 W/m 7,7 km/h (2 Bft)
11.07.2013 18:36 18,5 C 18,4 C 64 % 1021,6 hPa 0,0 l/m 0 min 0 min 0,0 UV-I 241 W/m 0,0 km/h (0 Bft)
11.07.2013 18:38 18,6 C 18,4 C 65 % 1021,6 hPa 0,0 l/m 0 min 0 min 0,0 UV-I 172 W/m 0,0 km/h (0 Bft)
11.07.2013 18:40 18,7 C 18,4 C 63 % 1021,6 hPa 0,0 l/m 0 min 0 min 0,0 UV-I 199 W/m 2,6 km/h (1 Bft)
11.07.2013 18:42 18,7 C 18,4 C 64 % 1021,6 hPa 0,0 l/m 0 min 0 min 0,0 UV-I 221 W/m 2,6 km/h (1 Bft)
11.07.2013 18:44 18,8 C 18,4 C 65 % 1021,6 hPa 0,0 l/m 0 min 0 min 0,0 UV-I 195 W/m 2,6 km/h (1 Bft)
11.07.2013 18:46 18,8 C 18,4 C 63 % 1021,5 hPa 0,0 l/m 0 min 0 min 0,0 UV-I 179 W/m 12,9 km/h (3 Bft)
11.07.2013 18:48 18,9 C 19,0 C 64 % 1021,4 hPa 0,0 l/m 0 min 0 min 0,0 UV-I 163 W/m 2,6 km/h (1 Bft)
11.07.2013 18:50 18,8 C 18,4 C 63 % 1021,5 hPa 0,0 l/m 0 min 0 min 0,0 UV-I 155 W/m 10,3 km/h (2 Bft)
11.07.2013 18:52 18,7 C 18,4 C 63 % 1021,4 hPa 0,0 l/m 0 min 0 min 0,0 UV-I 156 W/m 12,9 km/h (3 Bft)
11.07.2013 18:54 18,6 C 18,4 C 64 % 1021,4 hPa 0,0 l/m 0 min 0 min 0,0 UV-I 155 W/m 2,6 km/h (1 Bft)
11.07.2013 18:56 18,6 C 18,4 C 64 % 1021,3 hPa 0,0 l/m 0 min 0 min 0,0 UV-I 148 W/m 2,6 km/h (1 Bft)
11.07.2013 18:58 18,6 C 18,4 C 65 % 1021,3 hPa 0,0 l/m 0 min 0 min 0,0 UV-I 142 W/m 10,3 km/h (2 Bft)
11.07.2013 19:00 18,5 C 18,4 C 64 % 1021,3 hPa 0,0 l/m 0 min 0 min 0,0 UV-I 137 W/m 7,7 km/h (2 Bft)
11.07.2013 19:02 18,4 C 18,4 C 65 % 1021,3 hPa 0,0 l/m 0 min 0 min 0,0 UV-I 120 W/m 0,0 km/h (0 Bft)
11.07.2013 19:06 18,4 C 18,4 C 66 % 1021,3 hPa 0,0 l/m 0 min 0 min 0,0 UV-I 118 W/m 12,9 km/h (3 Bft)
11.07.2013 19:08 18,4 C 17,9 C 65 % 1021,4 hPa 0,0 l/m 0 min 0 min 0,0 UV-I 97 W/m 10,3 km/h (2 Bft)
11.07.2013 19:10 18,4 C 17,9 C 65 % 1021,4 hPa 0,0 l/m 0 min 0 min 0,0 UV-I 88 W/m 10,3 km/h (2 Bft)
11.07.2013 19:12 18,3 C 17,9 C 65 % 1021,4 hPa 0,0 l/m 0 min 0 min 0,0 UV-I 81 W/m 12,9 km/h (3 Bft)
11.07.2013 19:14 18,2 C 17,9 C 65 % 1021,4 hPa 0,0 l/m 0 min 0 min 0,0 UV-I 74 W/m 2,6 km/h (1 Bft)
11.07.2013 19:16 18,2 C 17,3 C 66 % 1021,4 hPa 0,0 l/m 0 min 0 min 0,0 UV-I 70 W/m 2,6 km/h (1 Bft)
11.07.2013 19:18 18,1 C 17,3 C 66 % 1021,4 hPa 0,0 l/m 0 min 0 min 0,0 UV-I 70 W/m 2,6 km/h (1 Bft)
11.07.2013 19:20 18,1 C 17,3 C 66 % 1021,4 hPa 0,0 l/m 0 min 0 min 0,0 UV-I 67 W/m 5,1 km/h (1 Bft)
11.07.2013 19:22 18,0 C 17,3 C 65 % 1021,4 hPa 0,0 l/m 0 min 0 min 0,0 UV-I 65 W/m 10,3 km/h (2 Bft)
11.07.2013 19:24 17,9 C 17,3 C 66 % 1021,5 hPa 0,0 l/m 0 min 0 min 0,0 UV-I 72 W/m 10,3 km/h (2 Bft)
11.07.2013 19:26 17,9 C 17,3 C 66 % 1021,4 hPa 0,0 l/m 0 min 0 min 0,0 UV-I 70 W/m 0,0 km/h (0 Bft)
11.07.2013 19:28 18,0 C 17,3 C 66 % 1021,4 hPa 0,0 l/m 0 min 0 min 0,0 UV-I 67 W/m 0,0 km/h (0 Bft)
11.07.2013 19:30 18,1 C 17,3 C 66 % 1021,3 hPa 0,0 l/m 0 min 0 min 0,0 UV-I 63 W/m 0,0 km/h (0 Bft)
11.07.2013 19:32 18,1 C 17,3 C 64 % 1021,4 hPa 0,0 l/m 0 min 0 min 0,0 UV-I 60 W/m 10,3 km/h (2 Bft)
11.07.2013 19:34 18,1 C 17,3 C 64 % 1021,4 hPa 0,0 l/m 0 min 0 min 0,0 UV-I 56 W/m 10,3 km/h (2 Bft)
11.07.2013 19:36 18,1 C 17,3 C 64 % 1021,4 hPa 0,0 l/m 0 min 0 min 0,0 UV-I 56 W/m 2,6 km/h (1 Bft)
11.07.2013 19:38 18,1 C 17,3 C 64 % 1021,4 hPa 0,0 l/m 0 min 0 min 0,0 UV-I 56 W/m 0,0 km/h (0 Bft)
11.07.2013 19:40 18,1 C 17,3 C 65 % 1021,5 hPa 0,0 l/m 0 min 0 min 0,0 UV-I 56 W/m 0,0 km/h (0 Bft)
11.07.2013 19:42 18,0 C 17,3 C 65 % 1021,5 hPa 0,0 l/m 0 min 0 min 0,0 UV-I 53 W/m 2,6 km/h (1 Bft)
11.07.2013 19:44 17,9 C 17,3 C 65 % 1021,5 hPa 0,0 l/m 0 min 0 min 0,0 UV-I 51 W/m 0,0 km/h (0 Bft)
11.07.2013 19:46 17,9 C 16,8 C 65 % 1021,6 hPa 0,0 l/m 0 min 0 min 0,0 UV-I 51 W/m 2,6 km/h (1 Bft)
11.07.2013 19:48 17,9 C 16,8 C 66 % 1021,5 hPa 0,0 l/m 0 min 0 min 0,0 UV-I 47 W/m 0,0 km/h (0 Bft)
11.07.2013 19:50 17,8 C 16,8 C 66 % 1021,6 hPa 0,0 l/m 0 min 0 min 0,0 UV-I 46 W/m 0,0 km/h (0 Bft)
11.07.2013 19:52 17,7 C 16,8 C 66 % 1021,5 hPa 0,0 l/m 0 min 0 min 0,0 UV-I 46 W/m 0,0 km/h (0 Bft)
11.07.2013 19:54 17,7 C 16,8 C 66 % 1021,5 hPa 0,0 l/m 0 min 0 min 0,0 UV-I 44 W/m 0,0 km/h (0 Bft)
11.07.2013 19:56 17,7 C 16,8 C 67 % 1021,5 hPa 0,0 l/m 0 min 0 min 0,0 UV-I 44 W/m 0,0 km/h (0 Bft)
11.07.2013 19:58 17,6 C 16,8 C 67 % 1021,5 hPa 0,0 l/m 0 min 0 min 0,0 UV-I 44 W/m 0,0 km/h (0 Bft)
11.07.2013 20:00 17,6 C 16,8 C 67 % 1021,5 hPa 0,0 l/m 0 min 0 min 0,0 UV-I 47 W/m 0,0 km/h (0 Bft)
11.07.2013 20:02 17,6 C 16,8 C 67 % 1021,5 hPa 0,0 l/m 0 min 0 min 0,0 UV-I 49 W/m 0,0 km/h (0 Bft)
11.07.2013 20:06 17,5 C 16,8 C 68 % 1021,6 hPa 0,0 l/m 0 min 0 min 0,0 UV-I 51 W/m 12,9 km/h (3 Bft)
11.07.2013 20:08 17,5 C 16,8 C 69 % 1021,6 hPa 0,0 l/m 0 min 0 min 0,0 UV-I 49 W/m 5,1 km/h (1 Bft)
11.07.2013 20:10 17,6 C 16,8 C 69 % 1021,5 hPa 0,0 l/m 0 min 0 min 0,0 UV-I 49 W/m 2,6 km/h (1 Bft)
11.07.2013 20:12 17,6 C 16,8 C 69 % 1021,5 hPa 0,0 l/m 0 min 0 min 0,0 UV-I 49 W/m 2,6 km/h (1 Bft)
11.07.2013 20:14 17,7 C 16,8 C 69 % 1021,5 hPa 0,0 l/m 0 min 0 min 0,0 UV-I 47 W/m 7,7 km/h (2 Bft)
11.07.2013 20:16 17,7 C 16,8 C 69 % 1021,6 hPa 0,0 l/m 0 min 0 min 0,0 UV-I 47 W/m 10,3 km/h (2 Bft)
11.07.2013 20:18 17,7 C 16,8 C 68 % 1021,6 hPa 0,0 l/m 0 min 0 min 0,0 UV-I 47 W/m 10,3 km/h (2 Bft)
11.07.2013 20:20 17,7 C 16,8 C 69 % 1021,6 hPa 0,0 l/m 0 min 0 min 0,0 UV-I 47 W/m 5,1 km/h (1 Bft)
11.07.2013 20:22 17,7 C 16,8 C 69 % 1021,6 hPa 0,0 l/m 0 min 0 min 0,0 UV-I 47 W/m 0,0 km/h (0 Bft)
11.07.2013 20:24 17,7 C 16,8 C 68 % 1021,6 hPa 0,0 l/m 0 min 0 min 0,0 UV-I 44 W/m 0,0 km/h (0 Bft)
11.07.2013 20:26 17,7 C 16,8 C 68 % 1021,6 hPa 0,0 l/m 0 min 0 min 0,0 UV-I 44 W/m 10,3 km/h (2 Bft)
11.07.2013 20:28 17,7 C 16,8 C 68 % 1021,6 hPa 0,0 l/m 0 min 0 min 0,0 UV-I 42 W/m 5,1 km/h (1 Bft)
11.07.2013 20:30 17,7 C 16,8 C 68 % 1021,6 hPa 0,0 l/m 0 min 0 min 0,0 UV-I 42 W/m 5,1 km/h (1 Bft)
11.07.2013 20:32 17,6 C 16,8 C 68 % 1021,6 hPa 0,0 l/m 0 min 0 min 0,0 UV-I 42 W/m 2,6 km/h (1 Bft)
11.07.2013 20:34 17,6 C 16,8 C 68 % 1021,6 hPa 0,0 l/m 0 min 0 min 0,0 UV-I 40 W/m 5,1 km/h (1 Bft)
11.07.2013 20:36 17,6 C 16,8 C 68 % 1021,5 hPa 0,0 l/m 0 min 0 min 0,0 UV-I 40 W/m 2,6 km/h (1 Bft)
11.07.2013 20:38 17,6 C 16,8 C 68 % 1021,5 hPa 0,0 l/m 0 min 0 min 0,0 UV-I 40 W/m 0,0 km/h (0 Bft)
11.07.2013 20:40 17,6 C 16,8 C 68 % 1021,6 hPa 0,0 l/m 0 min 0 min 0,0 UV-I 39 W/m 10,3 km/h (2 Bft)
11.07.2013 20:42 17,6 C 16,8 C 68 % 1021,6 hPa 0,0 l/m 0 min 0 min 0,0 UV-I 39 W/m 5,1 km/h (1 Bft)
11.07.2013 20:44 17,5 C 16,2 C 68 % 1021,5 hPa 0,0 l/m 0 min 0 min 0,0 UV-I 39 W/m 0,0 km/h (0 Bft)
11.07.2013 20:46 17,5 C 16,2 C 68 % 1021,6 hPa 0,0 l/m 0 min 0 min 0,0 UV-I 37 W/m 0,0 km/h (0 Bft)
11.07.2013 20:48 17,4 C 16,2 C 68 % 1021,6 hPa 0,0 l/m 0 min 0 min 0,0 UV-I 37 W/m 0,0 km/h (0 Bft)
11.07.2013 20:50 17,4 C 16,2 C 69 % 1021,6 hPa 0,0 l/m 0 min 0 min 0,0 UV-I 35 W/m 0,0 km/h (0 Bft)
11.07.2013 20:52 17,4 C 16,2 C 68 % 1021,6 hPa 0,0 l/m 0 min 0 min 0,0 UV-I 35 W/m 0,0 km/h (0 Bft)
11.07.2013 20:54 17,4 C 16,2 C 68 % 1021,6 hPa 0,0 l/m 0 min 0 min 0,0 UV-I 33 W/m 0,0 km/h (0 Bft)
11.07.2013 20:56 17,4 C 16,2 C 69 % 1021,6 hPa 0,0 l/m 0 min 0 min 0,0 UV-I 33 W/m 0,0 km/h (0 Bft)
11.07.2013 20:58 17,4 C 15,7 C 69 % 1021,6 hPa 0,0 l/m 0 min 0 min 0,0 UV-I 32 W/m 0,0 km/h (0 Bft)
11.07.2013 21:00 17,4 C 15,7 C 69 % 1021,6 hPa 0,0 l/m 0 min 0 min 0,0 UV-I 32 W/m 0,0 km/h (0 Bft)
11.07.2013 21:02 17,4 C 15,7 C 69 % 1021,6 hPa 0,0 l/m 0 min 0 min 0,0 UV-I 30 W/m 0,0 km/h (0 Bft)
11.07.2013 21:06 17,4 C 15,7 C 69 % 1021,7 hPa 0,0 l/m 0 min 0 min 0,0 UV-I 26 W/m 0,0 km/h (0 Bft)
11.07.2013 21:08 17,4 C 15,7 C 70 % 1021,6 hPa 0,0 l/m 0 min 0 min 0,0 UV-I 26 W/m 0,0 km/h (0 Bft)
11.07.2013 21:10 17,4 C 15,7 C 70 % 1021,7 hPa 0,0 l/m 0 min 0 min 0,0 UV-I 25 W/m 0,0 km/h (0 Bft)
11.07.2013 21:12 17,4 C 15,7 C 70 % 1021,6 hPa 0,0 l/m 0 min 0 min 0,0 UV-I 23 W/m 0,0 km/h (0 Bft)
11.07.2013 21:14 17,4 C 15,7 C 70 % 1021,7 hPa 0,0 l/m 0 min 0 min 0,0 UV-I 21 W/m 0,0 km/h (0 Bft)
11.07.2013 21:16 17,3 C 15,7 C 70 % 1021,7 hPa 0,0 l/m 0 min 0 min 0,0 UV-I 19 W/m 0,0 km/h (0 Bft)
11.07.2013 21:18 17,3 C 15,1 C 70 % 1021,8 hPa 0,0 l/m 0 min 0 min 0,0 UV-I 19 W/m 0,0 km/h (0 Bft)
11.07.2013 21:20 17,3 C 15,1 C 70 % 1021,7 hPa 0,0 l/m 0 min 0 min 0,0 UV-I 18 W/m 0,0 km/h (0 Bft)
11.07.2013 21:22 17,3 C 15,1 C 70 % 1021,7 hPa 0,0 l/m 0 min 0 min 0,0 UV-I 16 W/m 2,6 km/h (1 Bft)
11.07.2013 21:24 17,3 C 15,1 C 70 % 1021,7 hPa 0,0 l/m 0 min 0 min 0,0 UV-I 14 W/m 0,0 km/h (0 Bft)
11.07.2013 21:26 17,2 C 15,1 C 70 % 1021,7 hPa 0,0 l/m 0 min 0 min 0,0 UV-I 12 W/m 0,0 km/h (0 Bft)
11.07.2013 21:28 17,2 C 14,6 C 70 % 1021,7 hPa 0,0 l/m 0 min 0 min 0,0 UV-I 12 W/m 0,0 km/h (0 Bft)
11.07.2013 21:30 17,2 C 14,6 C 71 % 1021,8 hPa 0,0 l/m 0 min 0 min 0,0 UV-I 11 W/m 0,0 km/h (0 Bft)
11.07.2013 21:32 17,1 C 14,6 C 71 % 1021,8 hPa 0,0 l/m 0 min 0 min 0,0 UV-I 11 W/m 0,0 km/h (0 Bft)
11.07.2013 21:34 17,1 C 14,6 C 71 % 1021,8 hPa 0,0 l/m 0 min 0 min 0,0 UV-I 9 W/m 0,0 km/h (0 Bft)
11.07.2013 21:36 17,0 C 14,0 C 71 % 1021,8 hPa 0,0 l/m 0 min 0 min 0,0 UV-I 9 W/m 0,0 km/h (0 Bft)
11.07.2013 21:38 17,0 C 14,0 C 71 % 1021,8 hPa 0,0 l/m 0 min 0 min 0,0 UV-I 7 W/m 0,0 km/h (0 Bft)
11.07.2013 21:40 16,9 C 14,0 C 71 % 1021,8 hPa 0,0 l/m 0 min 0 min 0,0 UV-I 7 W/m 0,0 km/h (0 Bft)
11.07.2013 21:42 16,9 C 14,0 C 71 % 1021,7 hPa 0,0 l/m 0 min 0 min 0,0 UV-I 7 W/m 0,0 km/h (0 Bft)
11.07.2013 21:44 16,8 C 13,4 C 72 % 1021,8 hPa 0,0 l/m 0 min 0 min 0,0 UV-I 5 W/m 0,0 km/h (0 Bft)
11.07.2013 21:46 16,8 C 13,4 C 72 % 1021,8 hPa 0,0 l/m 0 min 0 min 0,0 UV-I 5 W/m 0,0 km/h (0 Bft)
11.07.2013 21:48 16,7 C 13,4 C 72 % 1021,8 hPa 0,0 l/m 0 min 0 min 0,0 UV-I 5 W/m 0,0 km/h (0 Bft)
11.07.2013 21:50 16,7 C 13,4 C 72 % 1021,8 hPa 0,0 l/m 0 min 0 min 0,0 UV-I 0 W/m 0,0 km/h (0 Bft)
11.07.2013 21:52 16,6 C 13,4 C 72 % 1021,8 hPa 0,0 l/m 0 min 0 min 0,0 UV-I 0 W/m 0,0 km/h (0 Bft)
11.07.2013 21:54 16,5 C 13,4 C 73 % 1021,9 hPa 0,0 l/m 0 min 0 min 0,0 UV-I 0 W/m 0,0 km/h (0 Bft)
11.07.2013 21:56 16,4 C 13,4 C 73 % 1021,8 hPa 0,0 l/m 0 min 0 min 0,0 UV-I 0 W/m 0,0 km/h (0 Bft)
11.07.2013 21:58 16,4 C 12,9 C 73 % 1021,8 hPa 0,0 l/m 0 min 0 min 0,0 UV-I 0 W/m 0,0 km/h (0 Bft)
11.07.2013 22:00 16,3 C 12,9 C 73 % 1021,8 hPa 0,0 l/m 0 min 0 min 0,0 UV-I 0 W/m 0,0 km/h (0 Bft)
11.07.2013 22:02 16,3 C 12,9 C 73 % 1021,8 hPa 0,0 l/m 0 min 0 min 0,0 UV-I 0 W/m 0,0 km/h (0 Bft)
11.07.2013 22:06 16,2 C 12,9 C 74 % 1021,9 hPa 0,0 l/m 0 min 0 min 0,0 UV-I 0 W/m 0,0 km/h (0 Bft)
11.07.2013 22:08 16,1 C 12,9 C 74 % 1021,9 hPa 0,0 l/m 0 min 0 min 0,0 UV-I 0 W/m 0,0 km/h (0 Bft)
11.07.2013 22:10 16,0 C 12,9 C 74 % 1022,0 hPa 0,0 l/m 0 min 0 min 0,0 UV-I 0 W/m 0,0 km/h (0 Bft)
11.07.2013 22:12 15,9 C 12,9 C 74 % 1022,0 hPa 0,0 l/m 0 min 0 min 0,0 UV-I 0 W/m 0,0 km/h (0 Bft)
11.07.2013 22:14 15,9 C 12,9 C 74 % 1022,0 hPa 0,0 l/m 0 min 0 min 0,0 UV-I 0 W/m 0,0 km/h (0 Bft)
11.07.2013 22:16 15,8 C 12,3 C 74 % 1022,0 hPa 0,0 l/m 0 min 0 min 0,0 UV-I 0 W/m 0,0 km/h (0 Bft)
11.07.2013 22:18 15,8 C 12,3 C 75 % 1022,0 hPa 0,0 l/m 0 min 0 min 0,0 UV-I 0 W/m 0,0 km/h (0 Bft)
11.07.2013 22:20 15,7 C 12,3 C 75 % 1022,1 hPa 0,0 l/m 0 min 0 min 0,0 UV-I 0 W/m 0,0 km/h (0 Bft)
11.07.2013 22:22 15,6 C 12,3 C 75 % 1022,0 hPa 0,0 l/m 0 min 0 min 0,0 UV-I 0 W/m 0,0 km/h (0 Bft)
11.07.2013 22:24 15,6 C 12,3 C 75 % 1022,1 hPa 0,0 l/m 0 min 0 min 0,0 UV-I 0 W/m 0,0 km/h (0 Bft)
11.07.2013 22:26 15,5 C 12,3 C 75 % 1022,1 hPa 0,0 l/m 0 min 0 min 0,0 UV-I 0 W/m 0,0 km/h (0 Bft)
11.07.2013 22:28 15,4 C 12,3 C 76 % 1022,0 hPa 0,0 l/m 0 min 0 min 0,0 UV-I 0 W/m 0,0 km/h (0 Bft)
11.07.2013 22:30 15,3 C 12,3 C 76 % 1022,0 hPa 0,0 l/m 0 min 0 min 0,0 UV-I 0 W/m 0,0 km/h (0 Bft)
11.07.2013 22:32 15,3 C 11,8 C 76 % 1022,0 hPa 0,0 l/m 0 min 0 min 0,0 UV-I 0 W/m 0,0 km/h (0 Bft)
11.07.2013 22:34 15,2 C 11,8 C 76 % 1022,1 hPa 0,0 l/m 0 min 0 min 0,0 UV-I 0 W/m 0,0 km/h (0 Bft)
11.07.2013 22:36 15,2 C 11,8 C 76 % 1022,1 hPa 0,0 l/m 0 min 0 min 0,0 UV-I 0 W/m 0,0 km/h (0 Bft)
11.07.2013 22:38 15,1 C 11,8 C 77 % 1022,1 hPa 0,0 l/m 0 min 0 min 0,0 UV-I 0 W/m 0,0 km/h (0 Bft)
11.07.2013 22:40 15,1 C 11,8 C 77 % 1022,1 hPa 0,0 l/m 0 min 0 min 0,0 UV-I 0 W/m 0,0 km/h (0 Bft)
11.07.2013 22:42 15,0 C 11,8 C 77 % 1022,1 hPa 0,0 l/m 0 min 0 min 0,0 UV-I 0 W/m 0,0 km/h (0 Bft)
11.07.2013 22:44 14,9 C 11,8 C 77 % 1022,1 hPa 0,0 l/m 0 min 0 min 0,0 UV-I 0 W/m 0,0 km/h (0 Bft)
11.07.2013 22:46 14,9 C 11,8 C 77 % 1022,1 hPa 0,0 l/m 0 min 0 min 0,0 UV-I 0 W/m 0,0 km/h (0 Bft)
11.07.2013 22:48 14,8 C 11,8 C 78 % 1022,1 hPa 0,0 l/m 0 min 0 min 0,0 UV-I 0 W/m 0,0 km/h (0 Bft)
11.07.2013 22:50 14,8 C 11,8 C 77 % 1022,1 hPa 0,0 l/m 0 min 0 min 0,0 UV-I 0 W/m 0,0 km/h (0 Bft)
11.07.2013 22:52 14,7 C 11,8 C 78 % 1022,1 hPa 0,0 l/m 0 min 0 min 0,0 UV-I 0 W/m 0,0 km/h (0 Bft)
11.07.2013 22:54 14,7 C 11,8 C 78 % 1022,1 hPa 0,0 l/m 0 min 0 min 0,0 UV-I 0 W/m 0,0 km/h (0 Bft)
11.07.2013 22:56 14,6 C 11,8 C 78 % 1022,1 hPa 0,0 l/m 0 min 0 min 0,0 UV-I 0 W/m 0,0 km/h (0 Bft)
11.07.2013 22:58 14,6 C 11,8 C 78 % 1022,1 hPa 0,0 l/m 0 min 0 min 0,0 UV-I 0 W/m 0,0 km/h (0 Bft)
11.07.2013 23:00 14,5 C 11,8 C 78 % 1022,1 hPa 0,0 l/m 0 min 0 min 0,0 UV-I 0 W/m 0,0 km/h (0 Bft)
11.07.2013 23:02 14,4 C 11,2 C 78 % 1022,1 hPa 0,0 l/m 0 min 0 min 0,0 UV-I 0 W/m 0,0 km/h (0 Bft)
11.07.2013 23:06 14,3 C 11,2 C 79 % 1022,0 hPa 0,0 l/m 0 min 0 min 0,0 UV-I 0 W/m 0,0 km/h (0 Bft)
11.07.2013 23:08 14,3 C 11,2 C 79 % 1022,1 hPa 0,0 l/m 0 min 0 min 0,0 UV-I 0 W/m 0,0 km/h (0 Bft)
11.07.2013 23:10 14,2 C 11,2 C 79 % 1022,1 hPa 0,0 l/m 0 min 0 min 0,0 UV-I 0 W/m 0,0 km/h (0 Bft)
11.07.2013 23:12 14,2 C 11,2 C 79 % 1022,1 hPa 0,0 l/m 0 min 0 min 0,0 UV-I 0 W/m 0,0 km/h (0 Bft)
11.07.2013 23:14 14,1 C 11,2 C 79 % 1022,1 hPa 0,0 l/m 0 min 0 min 0,0 UV-I 0 W/m 0,0 km/h (0 Bft)
11.07.2013 23:16 14,0 C 11,2 C 79 % 1022,0 hPa 0,0 l/m 0 min 0 min 0,0 UV-I 0 W/m 0,0 km/h (0 Bft)
11.07.2013 23:18 14,0 C 11,2 C 79 % 1022,1 hPa 0,0 l/m 0 min 0 min 0,0 UV-I 0 W/m 0,0 km/h (0 Bft)
11.07.2013 23:20 14,0 C 11,2 C 79 % 1022,1 hPa 0,0 l/m 0 min 0 min 0,0 UV-I 0 W/m 0,0 km/h (0 Bft)
11.07.2013 23:22 14,0 C 11,2 C 80 % 1022,1 hPa 0,0 l/m 0 min 0 min 0,0 UV-I 0 W/m 0,0 km/h (0 Bft)
11.07.2013 23:24 13,9 C 11,2 C 80 % 1022,1 hPa 0,0 l/m 0 min 0 min 0,0 UV-I 0 W/m 0,0 km/h (0 Bft)
11.07.2013 23:26 13,9 C 11,2 C 80 % 1022,1 hPa 0,0 l/m 0 min 0 min 0,0 UV-I 0 W/m 0,0 km/h (0 Bft)
11.07.2013 23:28 13,8 C 11,2 C 80 % 1022,1 hPa 0,0 l/m 0 min 0 min 0,0 UV-I 0 W/m 0,0 km/h (0 Bft)
11.07.2013 23:30 13,8 C 11,2 C 80 % 1022,1 hPa 0,0 l/m 0 min 0 min 0,0 UV-I 0 W/m 0,0 km/h (0 Bft)
11.07.2013 23:32 13,7 C 10,7 C 80 % 1022,1 hPa 0,0 l/m 0 min 0 min 0,0 UV-I 0 W/m 0,0 km/h (0 Bft)
11.07.2013 23:34 13,7 C 10,7 C 81 % 1022,1 hPa 0,0 l/m 0 min 0 min 0,0 UV-I 0 W/m 0,0 km/h (0 Bft)
11.07.2013 23:36 13,6 C 10,7 C 81 % 1022,1 hPa 0,0 l/m 0 min 0 min 0,0 UV-I 0 W/m 0,0 km/h (0 Bft)
11.07.2013 23:38 13,6 C 10,7 C 81 % 1022,1 hPa 0,0 l/m 0 min 0 min 0,0 UV-I 0 W/m 0,0 km/h (0 Bft)
11.07.2013 23:40 13,5 C 10,7 C 81 % 1022,1 hPa 0,0 l/m 0 min 0 min 0,0 UV-I 0 W/m 0,0 km/h (0 Bft)
11.07.2013 23:42 13,5 C 10,7 C 81 % 1022,2 hPa 0,0 l/m 0 min 0 min 0,0 UV-I 0 W/m 0,0 km/h (0 Bft)
11.07.2013 23:44 13,4 C 10,7 C 81 % 1022,2 hPa 0,0 l/m 0 min 0 min 0,0 UV-I 0 W/m 0,0 km/h (0 Bft)
11.07.2013 23:46 13,4 C 10,7 C 81 % 1022,1 hPa 0,0 l/m 0 min 0 min 0,0 UV-I 0 W/m 0,0 km/h (0 Bft)
11.07.2013 23:48 13,3 C 10,7 C 81 % 1022,2 hPa 0,0 l/m 0 min 0 min 0,0 UV-I 0 W/m 0,0 km/h (0 Bft)
11.07.2013 23:50 13,3 C 10,7 C 82 % 1022,2 hPa 0,0 l/m 0 min 0 min 0,0 UV-I 0 W/m 0,0 km/h (0 Bft)
11.07.2013 23:52 13,3 C 10,7 C 82 % 1022,1 hPa 0,0 l/m 0 min 0 min 0,0 UV-I 0 W/m 0,0 km/h (0 Bft)
11.07.2013 23:54 13,2 C 10,7 C 82 % 1022,1 hPa 0,0 l/m 0 min 0 min 0,0 UV-I 0 W/m 0,0 km/h (0 Bft)
11.07.2013 23:56 13,2 C 10,7 C 82 % 1022,1 hPa 0,0 l/m 0 min 0 min 0,0 UV-I 0 W/m 0,0 km/h (0 Bft)
11.07.2013 23:58 13,1 C 10,7 C 82 % 1022,1 hPa 0,0 l/m 0 min 0 min 0,0 UV-I 0 W/m 0,0 km/h (0 Bft)
_ Min-Zeit 23:58 23:32 18:18 18:56 - - - - - 01:08
Minimum _ 13,1 C 10,7 C 62 % 1021,3 hPa - - - - - 0,0 km/h (0 Bft)
_ Max-Zeit 18:16 14:06 07:10 11:56 00:00 14:02 00:00 14:02 17:42 10:37
Maximum _ 19,4 C 20,1 C 85 % 1022,8 hPa 0,0 l/m 2 min 0 min 2,6 UV-I 605 W/m 23,2 km/h
N (4 Bft)
Durchschnitt _ 15,6 C 15,4 C 75 % 1022,0 hPa #0,0 l/m #26 min. #0 min. 1,4 UV-I 201 W/m 7,3 km/h (2 Bft)
© 2013 W. Hausmann